GEFSNE_500_meanwind_012.txt.gz
Wind_Speed
40 41 41 41 41 40 39 38 37 35 32 30 30 31 33 35 37 39 40 40 40 42 44 46 48 48 50 56 63 67 68 69 68 67 66 65 63 61
38 39 39 39 38 38 36 34 33 32 29 26 27 29 30 30 29 29 29 30 31 31 32 35 38 40 42 46 53 61 65 67 68 67 67 65 64 62
34 34 34 34 33 32 30 29 28 29 26 23 25 25 26 25 23 21 20 21 22 24 26 27 28 30 33 37 41 48 57 63 66 66 65 63 63 61
30 31 31 30 28 26 25 24 24 24 23 20 21 22 22 20 18 15 13 14 16 18 19 19 19 20 23 27 31 37 45 54 60 62 62 61 59 57
30 29 29 27 25 23 21 21 21 22 21 20 19 19 18 15 13 10 9 11 12 13 13 13 14 16 18 20 23 29 35 44 51 55 57 56 54 51
30 29 27 26 23 21 20 20 20 20 21 19 17 17 16 14 12 10 8 8 9 10 11 13 12 12 14 16 18 24 30 38 44 48 49 48 46 43
31 29 27 25 22 21 20 19 19 19 19 17 15 15 15 14 12 10 8 7 7 8 10 11 10 6 8 12 17 23 29 35 39 42 42 41 38 36
31 29 27 24 21 19 18 17 17 16 15 13 12 13 13 14 13 10 8 7 6 7 8 9 7 1 8 11 16 22 27 32 34 36 36 35 33 31
29 27 25 23 19 17 16 15 14 14 12 9 8 8 9 12 12 10 9 7 5 5 5 5 3 6 11 15 20 24 28 32 34 35 33 33 31 29
27 25 23 21 18 15 13 12 12 11 8 5 4 5 6 10 11 11 9 6 4 2 0 3 6 13 20 23 27 27 29 31 32 32 32 32 31 28
25 23 21 19 16 13 11 10 10 8 6 4 4 6 9 10 12 12 9 7 5 3 3 6 12 19 25 29 31 31 32 33 32 32 32 30 27 25
22 21 18 15 13 11 9 8 7 5 5 7 7 8 10 10 12 12 11 9 6 5 7 11 18 23 27 30 31 31 30 30 31 31 30 30 29 25
20 18 16 12 10 8 7 5 4 4 7 10 10 9 9 9 10 12 12 9 7 7 11 16 21 25 27 28 29 29 29 29 29 30 28 27 26 24
16 15 13 10 8 7 6 5 4 7 10 12 12 10 10 10 11 12 11 9 8 11 15 21 25 27 28 27 27 26 25 24 23 23 22 21 20 19
12 11 9 8 7 8 8 8 9 11 13 14 13 12 12 12 13 13 12 11 10 15 20 24 27 28 28 26 24 22 20 19 19 19 18 17 16 16
8 7 5 8 9 11 12 12 13 14 15 15 14 13 13 15 16 15 13 13 15 18 22 25 27 28 26 24 21 19 18 17 17 17 16 15 17 20
4 3 5 9 12 15 15 15 15 17 17 17 16 14 14 16 18 17 15 16 18 21 23 24 24 23 23 21 19 17 17 17 15 14 15 19 22 23
0 2 6 10 13 17 18 17 17 17 18 18 16 15 15 17 17 17 17 18 20 22 23 22 20 18 16 16 15 15 15 14 15 17 21 24 24 24
3 3 6 10 13 17 19 18 17 17 18 18 18 18 18 18 19 18 17 18 19 20 21 20 18 16 13 11 11 12 14 16 20 22 24 25 25 24
4 4 7 10 12 16 19 20 19 17 18 18 19 19 20 20 19 18 17 16 17 17 17 17 16 14 14 13 12 14 17 23 25 26 25 25 25 23
6 5 8 10 11 13 17 20 20 19 18 18 19 19 20 20 19 17 16 14 14 15 15 14 13 13 13 15 17 20 23 25 25 26 25 25 24 22
7 6 8 11 11 12 15 17 18 18 18 18 19 20 20 20 18 16 14 13 13 14 14 14 14 14 17 21 24 25 25 25 25 26 26 24 23 21
9 8 8 11 12 12 13 14 15 16 17 18 19 20 20 19 17 15 13 12 13 14 15 16 16 18 21 24 26 26 25 25 25 26 25 24 22 19

GEFSNE_500_meanwind_018.txt.gz
Wind_Speed
51 50 48 47 45 43 41 39 38 34 29 30 33 35 35 34 34 34 34 34 35 36 38 41 43 46 48 50 52 53 56 59 62 65 71 74 73 69
52 50 48 45 43 41 39 37 37 34 27 25 28 30 31 30 30 30 30 30 30 31 33 35 38 40 42 44 47 50 53 57 59 61 65 71 73 71
52 49 46 44 41 39 37 36 34 32 27 22 24 26 27 27 27 27 26 25 25 26 27 28 29 31 33 36 40 44 49 54 57 58 60 67 72 72
49 47 44 42 40 38 35 33 32 30 26 21 22 23 24 25 24 23 23 22 21 22 22 22 23 25 28 31 34 38 42 48 52 55 57 61 67 71
45 43 41 40 38 36 33 31 30 28 25 21 20 22 22 22 21 21 20 18 18 18 18 19 21 23 25 28 31 34 37 42 47 51 53 57 63 68
42 40 38 36 34 32 31 29 27 25 23 20 19 20 20 20 19 18 17 16 15 15 16 17 20 22 24 27 29 32 34 37 42 47 50 54 59 64
40 39 36 33 31 29 27 25 24 22 20 18 17 17 17 17 16 15 14 13 13 13 15 17 19 20 19 20 21 25 29 33 37 42 47 52 56 60
37 36 33 30 27 24 22 20 19 17 16 15 14 14 13 13 13 13 12 11 10 11 13 15 15 12 11 10 12 17 24 28 33 38 44 49 54 58
35 33 29 26 23 20 18 16 15 13 12 12 11 11 10 9 10 10 9 7 6 9 11 10 9 8 5 2 10 15 20 26 30 36 43 49 53 57
32 29 25 22 20 16 14 12 11 9 8 8 7 6 6 6 8 9 7 4 3 6 8 7 7 7 7 11 15 17 21 26 31 38 45 50 52 53
28 25 22 18 15 12 11 10 9 7 6 5 4 3 3 5 8 8 6 2 1 3 5 7 10 12 15 17 20 24 28 33 37 42 46 48 48 49
24 22 18 13 10 9 9 9 9 7 7 6 6 5 6 8 9 8 6 5 4 5 7 10 13 16 18 22 26 30 35 38 42 45 46 46 45 44
21 18 13 7 6 9 10 10 10 9 9 9 9 10 10 10 10 9 8 7 6 8 11 14 17 20 21 25 29 31 35 39 43 45 44 43 42 40
16 12 6 3 7 11 12 12 12 12 13 12 12 12 12 11 11 10 9 9 10 12 16 18 20 21 23 26 29 31 34 37 40 41 41 40 39 37
10 6 1 5 10 13 14 14 15 15 15 14 12 12 12 12 12 11 11 12 14 17 20 22 22 23 24 25 27 29 31 33 34 34 35 35 35 35
5 1 4 8 13 15 17 17 18 18 16 14 13 12 12 12 12 12 13 15 18 21 23 25 25 26 26 26 25 27 28 29 30 31 32 31 31 31
4 5 8 11 15 18 19 19 19 19 17 16 15 14 13 13 14 15 17 20 23 25 25 26 27 27 28 26 25 25 25 26 27 28 28 28 27 26
6 8 11 13 17 20 21 21 20 19 18 16 15 15 14 14 15 17 20 24 27 27 26 26 25 25 26 26 25 23 23 23 24 26 27 26 24 22
9 11 13 16 19 21 22 22 21 20 18 17 16 15 15 15 17 20 24 27 29 29 28 27 26 24 21 20 22 24 23 22 22 23 23 23 22 22
10 12 14 17 19 21 22 22 21 20 18 16 15 16 16 17 19 22 25 28 28 28 27 26 24 24 22 20 18 18 20 22 22 21 21 21 24 25
11 13 15 17 18 20 20 21 20 19 17 16 15 16 16 17 19 23 26 27 27 26 25 23 22 21 21 20 17 16 16 18 22 25 25 26 27 27
12 14 15 17 18 18 19 19 19 19 18 17 16 16 16 18 19 22 24 25 24 23 22 20 19 17 17 18 19 19 19 20 21 23 25 26 27 27
12 14 15 16 16 17 18 18 18 18 18 18 17 17 17 18 19 20 21 21 20 19 18 17 16 15 15 17 20 22 23 24 25 26 26 25 24 24

GEFSNE_500_meanwind_024.txt.gz
Wind_Speed
51 54 57 59 60 61 61 61 60 58 53 48 46 46 46 44 40 38 36 34 33 34 35 36 37 38 40 42 45 47 49 52 55 57 59 61 63 65
56 58 60 61 61 61 60 59 58 56 51 44 42 41 42 41 38 34 31 30 30 31 32 33 34 36 38 40 42 44 46 49 53 56 58 59 59 61
60 61 62 61 60 58 57 54 52 51 46 40 37 36 37 37 34 30 27 27 27 28 29 30 32 33 35 37 39 41 43 46 49 53 56 59 59 59
62 62 61 59 57 55 52 49 47 45 42 36 32 32 33 33 29 26 25 24 25 27 28 28 30 31 33 34 36 38 41 44 46 49 52 55 56 57
62 61 58 56 52 49 46 43 41 39 37 31 27 28 28 28 25 23 23 23 23 25 26 27 28 30 31 33 36 38 40 42 44 46 49 52 54 55
59 57 53 50 46 43 40 38 36 34 31 27 23 23 23 22 21 20 20 21 21 22 24 25 26 29 31 33 35 37 39 40 42 43 44 47 51 53
53 50 47 44 40 36 34 33 31 29 25 22 20 18 18 18 17 17 17 18 19 20 21 23 25 27 30 32 34 35 37 39 39 41 42 44 47 50
46 44 41 37 34 31 29 28 25 22 19 18 15 14 13 13 14 14 15 15 15 16 18 20 23 25 27 29 30 31 33 34 38 39 39 41 44 47
41 38 35 32 28 26 24 22 19 16 14 12 11 11 10 11 11 11 11 11 12 13 15 17 19 20 19 19 20 23 26 29 32 35 38 39 42 44
37 33 30 27 24 22 20 17 14 10 8 8 8 7 8 8 8 8 8 8 8 9 10 11 12 12 12 13 13 13 15 20 26 32 35 38 40 44
33 29 25 22 20 18 15 11 7 5 6 6 6 6 6 6 6 6 6 5 4 4 5 5 7 8 7 6 3 4 10 17 24 29 34 37 42 45
29 25 21 18 15 12 8 6 5 6 7 7 7 7 7 7 7 6 5 3 1 2 4 5 7 9 9 7 6 8 14 21 27 31 35 39 43 46
24 20 16 12 8 4 4 6 8 9 10 10 10 9 10 9 8 7 5 5 6 7 8 9 10 12 12 11 12 15 20 25 30 35 38 41 44 45
18 14 10 5 1 4 8 11 12 12 12 11 10 10 10 9 9 8 8 9 10 11 11 12 14 15 15 15 17 21 25 28 32 36 41 44 45 46
13 8 5 3 6 10 13 14 15 14 13 11 11 10 9 9 9 10 11 13 14 14 16 16 18 20 20 20 22 26 29 33 36 39 43 46 48 49
10 7 6 10 13 15 16 16 16 15 13 11 10 10 10 10 11 12 14 16 17 18 19 21 23 24 25 27 28 31 33 37 40 42 44 48 50 49
9 8 10 13 15 17 17 16 15 13 11 10 10 10 10 11 12 14 17 19 20 21 22 23 24 25 28 30 31 33 37 38 39 39 40 42 45 45
10 10 13 16 17 18 17 16 14 13 12 11 10 10 11 12 14 17 20 22 23 24 24 24 25 26 26 27 29 31 33 34 35 38 38 36 34 34
11 12 14 17 19 18 17 15 14 12 11 11 11 11 13 14 17 21 23 24 25 25 25 25 25 25 25 26 27 28 28 29 30 30 30 29 30 31
11 13 16 18 18 18 16 15 13 12 11 12 12 13 15 18 21 23 24 24 24 24 24 24 25 25 25 23 23 24 26 26 26 27 27 28 30 30
12 14 16 18 18 17 16 14 12 12 12 12 12 14 17 20 23 24 24 24 24 23 22 21 22 24 24 23 21 20 21 22 24 26 26 26 26 27
12 14 15 16 17 16 15 13 12 12 12 12 14 16 19 21 23 24 24 24 23 22 20 19 18 19 20 21 20 19 18 19 20 21 22 24 25 25
12 14 14 15 15 14 13 12 12 12 12 13 15 17 19 22 23 23 23 22 21 20 18 17 16 15 16 18 18 18 19 19 20 20 20 21 22 24

GEFSNE_500_meanwind_030.txt.gz
Wind_Speed
56 55 55 55 56 57 59 61 63 63 63 63 63 63 63 64 64 63 62 61 59 57 56 55 54 54 54 53 53 53 53 54 54 54 54 55 57 60
56 56 56 57 59 60 62 63 65 66 66 63 61 59 58 59 59 58 57 54 52 51 50 49 49 49 49 49 49 50 50 51 50 50 51 52 52 56
57 58 58 60 61 62 62 63 63 63 62 58 56 54 52 51 51 50 48 47 45 44 43 42 43 44 44 44 45 46 46 46 46 47 48 50 51 53
58 59 60 61 61 60 59 58 56 55 53 50 48 46 44 44 43 42 41 40 39 37 36 36 36 37 38 39 40 41 42 43 44 45 47 48 49 51
59 60 59 58 57 55 52 50 48 47 45 42 40 39 38 37 37 36 35 34 32 30 30 30 31 32 34 35 36 37 39 40 41 42 45 47 48 49
58 57 56 53 50 47 44 43 41 40 38 36 34 32 31 31 31 29 28 27 25 25 25 26 27 29 30 32 33 35 36 38 40 42 43 45 47 49
54 52 50 47 44 42 40 38 37 34 31 29 26 25 25 24 23 21 21 20 19 19 20 22 24 26 28 30 32 33 35 36 38 39 41 43 45 47
50 46 44 42 40 39 37 34 31 28 26 23 21 19 19 17 16 15 14 14 14 15 16 18 21 23 26 28 31 33 35 37 38 40 41 42 44 45
44 42 40 39 37 34 31 27 24 21 18 15 14 14 11 10 9 9 8 9 11 13 14 16 18 21 24 26 29 32 34 37 39 41 43 44 44 45
40 38 35 33 30 27 22 19 16 13 10 9 8 7 6 5 4 4 6 7 9 11 12 14 16 18 21 24 26 29 32 35 38 39 42 44 45 45
36 33 30 26 23 18 14 11 9 6 4 4 3 2 1 1 1 2 3 5 6 8 10 11 13 15 17 19 22 24 27 30 34 38 41 42 45 46
31 28 23 18 14 10 7 4 2 1 1 1 2 3 3 3 3 2 2 3 4 5 7 8 9 10 11 14 16 19 22 25 29 34 37 40 42 44
24 19 14 9 5 3 2 3 4 5 5 5 6 6 5 4 4 2 1 0 2 3 4 4 5 5 6 7 8 11 14 18 23 29 33 37 39 41
16 12 7 4 4 6 7 7 7 7 7 8 8 7 6 5 5 3 3 3 3 3 3 2 1 2 3 3 3 5 9 13 18 24 29 34 37 40
10 7 5 7 9 9 9 10 10 9 9 9 8 7 7 7 6 6 7 7 8 8 8 8 8 9 10 10 10 10 12 16 20 25 29 33 36 39
7 6 8 11 12 12 12 11 10 9 9 9 8 8 8 9 9 9 10 11 12 12 12 14 15 16 16 16 16 16 18 21 24 28 31 34 37 39
6 8 10 12 12 12 12 11 10 9 9 9 9 10 10 11 11 13 14 15 15 16 17 18 19 20 21 21 21 22 23 25 27 30 32 35 38 41
8 10 12 13 13 12 12 11 11 10 10 10 11 11 12 13 14 15 17 17 18 19 20 22 23 23 23 23 24 24 24 25 27 29 31 33 37 40
10 12 13 13 12 12 12 11 10 10 11 11 12 13 14 16 17 17 18 19 19 20 21 23 24 25 24 24 25 26 26 26 26 27 29 31 33 37
12 13 13 13 13 12 11 11 11 11 11 13 14 15 17 18 18 19 19 20 20 21 21 23 25 26 26 25 25 28 28 26 26 27 27 29 30 32
13 13 13 13 13 12 12 12 12 12 13 14 16 18 19 19 19 19 19 20 20 19 20 22 24 25 25 26 26 27 28 28 28 29 29 29 29 31
13 13 13 13 12 12 12 12 13 13 15 17 18 19 19 19 19 19 19 18 18 19 19 19 21 23 24 24 24 25 26 26 26 27 28 28 28 27
13 13 13 12 12 12 12 12 13 15 17 18 19 20 20 20 19 19 18 18 18 18 18 17 18 20 21 22 22 22 22 23 23 22 22 23 24 23

GEFSNE_500_meanwind_036.txt.gz
Wind_Speed
61 62 63 65 66 67 68 68 67 66 64 64 64 65 64 64 64 64 63 63 63 64 64 64 64 65 65 66 66 65 64 63 62 61 60 58 57 57
62 63 65 66 67 67 68 68 68 69 67 65 65 63 61 60 59 59 59 59 59 59 60 60 60 61 62 64 65 65 65 65 64 63 62 60 59 58
63 64 65 66 67 67 68 68 68 68 67 62 60 58 56 54 52 51 51 50 50 50 51 51 52 53 55 57 59 61 63 64 64 64 63 62 60 59
63 64 65 66 67 67 67 66 65 63 61 56 53 51 48 46 45 44 43 43 43 43 44 44 45 46 47 50 52 55 57 59 60 61 61 61 60 59
63 64 65 66 66 65 64 61 59 56 53 50 45 43 41 40 39 38 38 37 37 36 37 37 37 38 40 42 44 47 50 52 54 55 56 57 57 57
63 64 64 64 63 61 57 54 51 48 45 42 38 37 36 35 34 33 31 30 29 28 29 30 31 33 34 36 37 40 42 45 47 49 51 52 53 54
61 61 61 59 56 52 48 45 43 40 37 34 32 30 29 28 27 26 24 23 24 24 24 24 25 26 28 29 31 32 34 36 39 41 43 46 48 50
58 56 53 50 47 44 42 39 36 33 29 27 25 23 21 21 20 19 17 17 17 19 18 18 18 19 21 22 24 26 28 30 32 35 37 40 43 45
52 48 44 42 39 37 35 31 28 25 22 19 17 16 15 15 14 13 13 12 12 12 12 11 12 12 13 15 17 20 22 25 27 30 33 36 38 41
43 39 37 35 33 30 27 23 19 16 15 13 12 11 11 10 10 9 8 7 6 6 6 7 8 9 10 11 14 17 19 22 25 28 31 34 36 39
36 34 31 28 25 22 18 14 12 10 9 8 8 8 8 8 7 7 7 7 7 7 7 8 8 9 11 12 14 16 19 21 24 26 29 32 35 37
30 28 25 21 18 14 11 9 7 7 6 6 6 7 7 7 7 7 7 8 8 8 8 8 8 9 10 12 14 17 19 21 23 26 29 32 34 36
23 21 18 14 11 9 7 7 7 7 7 7 7 7 7 8 8 8 9 9 8 7 7 7 7 8 9 10 12 15 18 20 23 25 28 32 34 35
16 13 11 8 7 6 7 7 7 7 8 8 9 8 8 9 9 9 9 9 8 7 6 5 4 4 5 7 9 12 15 18 21 24 28 31 33 35
9 8 6 5 6 7 7 8 8 8 8 9 9 9 9 10 10 10 9 10 9 8 7 6 4 2 1 3 5 8 11 14 17 21 25 28 30 33
5 4 4 5 7 8 8 8 8 8 9 10 10 10 10 11 11 11 11 11 11 11 10 9 8 7 6 5 4 4 8 11 15 18 22 26 28 31
3 4 5 6 8 8 9 8 8 9 9 10 11 12 12 13 12 13 13 13 14 14 14 14 14 14 14 13 11 11 12 12 14 17 21 25 28 30
4 6 7 8 8 9 9 9 9 9 10 11 12 14 14 14 14 14 15 15 15 16 17 19 20 20 20 18 18 18 17 16 17 18 21 23 26 29
6 7 8 9 9 9 9 9 9 10 11 12 13 14 15 16 16 16 17 17 17 16 17 20 22 23 22 22 23 23 22 22 21 20 21 22 23 26
8 9 9 9 9 9 9 9 9 10 11 12 13 15 16 17 18 18 18 19 19 19 19 21 22 23 23 23 24 25 26 26 25 24 23 21 21 22
10 9 9 9 9 9 9 9 10 11 12 13 13 15 16 17 18 18 19 20 21 21 21 21 22 24 24 24 24 26 28 28 28 27 26 24 22 21
10 10 9 9 9 9 9 10 11 11 12 13 14 15 15 16 17 18 19 20 21 22 22 22 22 22 23 23 23 25 27 28 28 28 28 27 25 23
10 10 9 9 9 9 9 10 11 12 13 13 14 15 15 15 16 17 18 19 21 22 23 23 23 23 24 24 23 24 26 27 27 26 25 25 24 23

GEFSNE_500_meanwind_042.txt.gz
Wind_Speed
63 64 64 64 64 65 66 66 66 65 65 67 69 71 73 74 74 73 72 71 69 68 66 65 64 63 62 61 61 61 61 60 59 58 56 55 53 51
63 64 63 62 62 63 63 65 66 67 67 68 71 72 73 72 70 68 66 64 62 60 59 58 58 58 58 59 59 61 62 62 62 61 59 58 57 55
62 61 61 61 61 62 63 65 66 68 68 67 69 69 67 65 62 59 57 54 51 50 49 50 51 52 53 54 56 58 60 62 63 63 63 61 60 58
61 60 60 59 60 61 63 64 66 67 67 65 61 59 57 54 51 48 46 44 42 41 41 42 42 44 45 47 50 53 56 59 61 63 64 63 62 61
58 58 58 58 59 60 61 63 63 63 61 57 51 48 46 43 40 38 36 35 35 35 35 36 36 37 38 40 43 46 49 52 56 59 62 63 63 63
57 57 57 57 58 59 60 59 58 54 50 46 42 39 36 35 33 30 29 29 29 29 29 30 31 32 33 34 37 40 43 46 49 53 57 60 62 63
55 55 56 57 57 57 55 51 47 43 40 36 33 30 28 27 25 24 23 23 23 24 24 24 25 26 28 29 30 33 36 40 43 46 50 54 58 60
53 54 55 54 53 50 46 41 38 34 31 27 25 23 21 20 19 19 18 18 18 20 20 19 19 19 21 23 25 27 29 32 36 39 43 47 52 55
52 52 51 48 44 39 35 32 29 26 23 21 19 17 17 17 17 17 17 16 16 16 15 15 15 15 16 17 19 21 24 26 30 34 37 40 44 49
49 47 43 38 33 29 26 23 21 20 18 17 16 16 16 16 16 16 16 15 15 15 15 14 14 13 12 13 14 16 18 21 24 27 31 34 38 42
41 37 32 28 23 20 18 16 16 15 15 15 15 16 16 16 16 15 15 15 14 14 13 12 12 12 11 11 11 12 14 16 19 22 26 29 32 36
32 29 24 20 16 14 12 12 12 12 13 14 15 15 16 16 15 15 14 14 13 12 10 10 9 9 9 10 10 11 11 12 15 18 21 24 28 31
25 22 18 14 11 10 9 9 10 11 13 14 15 15 15 15 15 14 13 13 12 10 9 8 7 7 7 8 8 9 10 11 12 15 17 21 24 27
18 15 11 9 7 7 7 8 9 11 12 13 14 15 15 15 14 14 14 13 12 10 8 6 5 5 5 6 7 7 8 10 12 14 16 19 22 25
11 8 6 4 5 6 7 8 10 11 13 14 14 14 14 14 14 14 15 15 13 11 9 7 6 3 2 2 4 6 7 8 10 13 16 19 22 24
5 3 3 3 5 6 7 8 10 12 13 14 14 15 15 15 15 16 16 17 16 14 12 11 9 7 5 3 2 5 7 9 11 14 17 20 24 26
1 3 3 4 5 6 7 9 10 12 14 15 16 16 16 16 16 16 17 17 17 17 15 13 12 10 9 7 5 7 9 11 13 15 18 21 24 26
4 5 5 6 7 7 8 9 11 12 14 15 17 17 18 17 17 17 17 17 17 17 17 17 15 14 12 10 10 10 12 14 16 17 19 21 24 27
6 6 7 8 8 8 9 10 11 12 14 15 17 18 18 18 18 18 18 18 18 18 18 19 18 17 16 14 14 15 16 17 18 19 20 22 23 26
7 7 8 8 9 9 10 11 12 13 14 15 17 18 18 19 19 19 18 19 19 19 19 19 19 19 19 18 18 19 20 21 20 20 21 21 23 25
8 8 8 9 9 10 11 12 13 13 14 15 17 17 18 19 19 19 19 20 19 20 20 20 20 20 20 21 20 21 23 24 24 23 22 22 22 23
9 9 9 10 10 11 12 13 13 14 15 16 17 18 18 19 19 20 21 21 21 21 21 21 22 22 22 22 22 22 24 25 26 26 26 25 24 22
9 10 10 10 11 12 13 13 14 15 16 17 17 18 18 19 20 20 20 21 22 22 22 22 23 23 23 23 23 23 24 24 25 24 25 26 26 25

GEFSNE_500_meanwind_048.txt.gz
Wind_Speed
65 66 67 67 67 67 67 66 66 64 62 62 64 66 67 67 68 68 69 69 68 68 69 69 68 67 67 67 67 67 66 66 66 66 66 66 64 63
66 66 66 65 65 65 65 65 66 65 62 62 63 65 66 66 67 66 65 63 62 61 60 60 59 57 57 57 59 60 60 61 62 63 64 65 65 64
65 65 64 64 65 65 64 64 64 64 63 62 63 64 65 65 64 61 58 56 53 51 50 49 49 48 48 48 49 50 52 54 55 58 60 63 64 65
64 63 64 63 63 63 62 62 63 63 62 61 60 60 60 59 56 52 49 46 44 42 41 40 40 40 40 40 41 42 43 45 47 50 53 58 61 63
62 61 61 60 60 60 60 60 60 60 60 59 56 54 51 48 45 42 40 38 36 35 35 34 34 33 33 33 34 35 37 39 41 43 46 50 56 60
58 58 58 58 58 58 58 58 58 57 56 53 48 43 40 38 36 34 32 32 32 32 31 30 29 29 28 29 29 31 33 35 36 38 41 44 49 54
56 56 56 56 56 56 56 55 54 50 46 41 36 32 31 30 30 29 28 28 29 30 28 27 27 26 26 26 26 27 28 31 33 35 37 39 43 48
53 54 54 54 54 53 51 49 45 40 34 30 27 26 26 26 26 27 27 26 27 28 27 27 26 25 24 23 23 23 23 25 27 31 33 36 38 42
51 50 50 50 47 44 42 38 34 30 25 23 22 23 23 25 25 26 26 27 26 26 25 24 24 23 22 21 20 20 20 21 22 25 28 31 34 38
47 46 44 41 39 35 31 28 26 23 21 21 22 23 24 25 24 24 24 23 24 23 22 21 21 20 18 18 18 17 17 18 19 20 23 26 30 34
42 39 35 32 29 25 22 20 19 19 20 21 22 23 23 22 21 21 21 20 20 20 20 18 17 16 16 15 14 14 14 14 15 17 19 22 26 30
34 30 27 23 20 17 16 15 15 17 19 20 21 21 21 19 19 19 19 19 19 19 18 16 15 13 13 13 11 11 10 11 12 13 16 19 22 26
25 22 20 16 14 12 12 13 14 15 17 18 19 18 18 18 18 18 18 17 17 17 16 14 13 11 10 9 8 8 8 8 8 10 13 16 19 23
18 16 13 11 9 10 10 11 13 14 16 16 17 17 17 17 17 17 17 17 16 16 15 13 11 9 8 6 5 5 6 6 7 8 10 13 16 20
12 10 8 7 8 9 10 11 13 14 15 16 17 17 17 17 18 18 18 18 18 18 16 14 12 10 7 5 3 2 2 3 4 6 9 12 14 18
6 5 5 6 7 8 9 11 13 14 15 17 18 18 18 18 19 19 19 19 20 20 18 16 13 10 8 6 4 3 2 3 4 6 8 11 14 17
4 5 6 6 7 9 10 12 13 15 16 17 19 19 19 20 21 21 21 21 21 21 19 17 15 12 10 9 8 7 7 7 7 9 11 12 14 17
6 7 7 7 8 9 11 12 14 15 17 18 20 20 21 21 22 22 22 22 22 22 21 18 17 15 14 13 12 11 11 11 12 13 14 14 15 17
8 8 8 9 9 10 11 13 14 15 16 18 20 21 21 22 23 24 24 24 24 24 23 21 20 19 18 16 15 15 15 15 15 16 16 16 17 19
9 9 9 10 11 11 12 14 15 16 17 18 20 21 22 23 23 24 25 26 26 26 25 24 22 21 20 19 18 17 18 18 18 18 18 19 19 19
9 10 11 11 12 12 13 14 15 17 18 19 20 21 22 23 23 24 26 27 27 27 26 25 24 24 23 22 19 19 19 19 20 20 20 20 20 19
10 11 12 12 13 13 14 15 16 17 18 19 20 21 22 23 24 24 26 27 27 26 26 26 26 25 24 22 20 19 19 19 19 19 19 20 19 19
11 12 13 13 13 14 14 15 16 17 18 19 21 22 23 24 24 24 25 26 26 26 26 26 26 26 24 23 21 20 20 20 19 19 18 18 18 18

GEFSNE_500_meanwind_054.txt.gz
Wind_Speed
56 57 59 60 61 62 62 63 64 64 64 65 65 65 65 65 65 65 64 64 64 64 64 64 64 64 64 63 63 63 62 62 62 63 63 64 65 66
57 58 59 60 61 62 61 62 63 63 62 61 62 62 62 63 63 63 62 62 61 60 59 58 57 57 56 56 56 56 56 56 56 57 58 59 61 62
58 58 59 59 60 60 60 60 60 60 59 59 60 60 60 61 61 60 59 58 56 54 52 50 50 49 48 48 48 48 49 49 50 51 52 54 56 58
56 56 57 57 57 57 58 58 58 58 58 58 58 58 58 59 58 56 53 51 48 46 44 42 41 41 40 41 42 42 42 43 44 45 46 48 51 53
54 54 54 54 54 55 55 56 56 57 57 56 55 55 54 53 50 48 44 41 39 37 36 35 35 35 36 36 37 38 39 40 40 41 42 43 46 48
52 52 52 52 53 53 54 54 54 54 53 53 51 49 47 44 41 38 35 35 34 33 33 32 32 32 33 34 35 35 36 36 37 37 38 39 40 43
51 51 51 52 52 52 52 51 50 50 48 46 43 40 38 35 34 33 33 32 32 32 32 31 31 31 31 31 32 32 33 34 34 34 34 35 35 37
50 50 50 50 50 49 48 47 45 44 41 37 34 32 30 30 30 30 30 30 30 30 30 30 30 29 29 29 29 29 30 30 31 31 32 32 33 34
49 49 49 48 46 45 43 42 40 37 33 29 27 26 26 27 27 27 28 28 28 27 27 27 27 26 26 26 26 26 26 26 26 27 28 29 30 31
47 46 45 43 41 39 37 35 31 29 26 24 23 23 24 24 25 25 25 25 26 26 25 24 25 25 25 24 23 23 23 23 23 23 24 25 26 28
43 41 38 35 33 30 28 26 24 22 21 20 21 21 22 22 22 22 22 22 22 22 22 22 22 22 21 21 21 20 19 19 19 20 21 21 22 24
36 33 29 26 24 23 21 19 18 18 18 19 20 20 20 20 20 20 20 20 19 20 20 20 20 19 19 18 17 16 16 16 16 16 17 18 19 20
27 24 21 19 17 15 13 13 14 15 16 16 17 17 18 18 19 18 18 18 18 19 19 17 16 15 14 14 13 12 12 12 13 13 14 15 16 17
19 17 15 13 11 10 10 11 12 13 14 14 15 16 18 17 17 17 17 18 18 18 16 15 14 12 11 9 8 8 8 8 9 10 11 11 12 14
13 11 9 7 7 7 8 10 12 12 13 14 15 16 17 17 17 17 17 17 17 15 14 13 12 10 9 8 7 6 6 6 5 6 6 8 9 10
8 6 4 4 6 7 8 10 11 12 13 14 15 16 17 17 17 17 17 17 16 15 14 12 11 10 9 9 8 7 6 5 3 1 1 4 6 8
2 2 3 5 6 7 9 10 11 12 14 15 17 17 17 18 18 18 17 17 17 16 15 14 13 13 12 11 11 10 9 8 7 6 4 4 5 7
3 4 5 6 7 8 10 11 12 13 15 16 17 17 18 19 19 19 19 19 19 18 17 16 16 17 16 15 14 13 13 12 11 10 8 7 7 8
6 6 7 8 9 10 11 12 13 14 16 17 17 18 19 20 20 21 21 20 20 20 20 20 19 19 18 18 17 17 16 15 14 13 13 12 11 11
8 8 9 10 10 11 13 14 15 16 17 17 18 19 20 20 21 22 22 22 22 22 22 21 21 21 20 20 19 20 20 19 18 17 16 15 14 14
10 10 11 11 12 13 14 15 17 17 18 19 19 20 20 21 21 22 23 23 23 23 22 22 22 22 21 21 20 19 20 20 20 19 18 18 17 16
11 12 12 13 13 14 16 17 18 19 19 20 21 21 22 22 22 22 22 23 23 22 22 23 23 22 22 20 20 20 20 20 20 20 19 19 19 18
12 13 13 14 15 16 17 18 19 19 20 21 22 22 23 23 23 23 22 22 22 22 22 23 23 22 22 21 20 20 20 20 20 20 19 19 19 19

GEFSNE_500_meanwind_060.txt.gz
Wind_Speed
52 54 55 56 58 59 61 62 63 63 64 66 67 67 67 68 68 68 67 67 66 65 64 64 64 64 63 63 62 62 62 62 62 62 62 63 64 65
55 56 57 58 59 61 61 62 63 63 62 63 64 65 65 66 66 66 65 64 63 63 63 63 62 61 60 59 58 58 58 58 58 58 58 59 60 61
58 58 59 59 59 60 61 61 61 61 60 59 61 62 62 62 62 61 61 61 60 59 58 58 56 55 55 54 53 53 52 52 52 52 52 52 53 55
59 59 58 58 58 58 58 58 58 58 57 57 57 58 58 58 58 57 56 55 53 52 50 49 48 47 47 46 46 45 45 46 46 46 47 47 48 48
58 57 57 57 56 56 56 56 55 55 56 55 55 55 54 54 53 51 49 47 46 44 43 41 41 40 40 40 40 40 40 41 41 41 42 42 42 42
56 56 55 55 54 54 54 54 54 54 53 53 52 50 49 47 46 44 41 40 39 38 37 37 36 36 36 36 36 36 37 37 37 37 38 38 39 39
54 53 53 52 52 52 52 52 52 51 50 49 46 44 42 40 38 37 36 35 34 34 34 34 34 33 32 32 32 33 33 33 34 35 35 36 37 38
52 51 51 51 51 50 50 49 48 46 44 42 39 37 35 34 33 33 32 31 30 31 31 31 31 30 30 30 30 30 30 30 31 31 32 33 34 35
50 49 49 49 48 47 45 43 41 39 37 34 31 29 28 28 28 28 28 28 29 29 28 28 28 28 28 28 28 28 28 28 28 29 30 30 31 32
48 47 46 44 43 40 37 35 33 31 29 26 25 25 25 25 26 26 26 26 26 26 26 25 25 24 25 25 25 24 24 25 25 26 26 27 27 28
44 41 38 37 34 31 29 27 26 25 24 22 22 22 22 23 24 24 25 25 24 24 24 24 23 22 22 22 21 21 21 21 22 22 22 23 24 24
36 33 30 28 25 23 22 21 20 19 19 20 20 20 21 22 23 23 23 23 22 22 22 22 21 20 20 21 20 19 18 18 18 18 19 20 20 21
27 24 21 19 18 17 17 16 15 16 17 17 18 19 20 21 22 22 22 22 21 21 21 20 20 19 18 17 16 15 14 14 13 14 15 16 17 18
18 16 14 13 13 13 12 13 13 14 15 16 17 18 19 20 21 21 21 21 20 20 20 19 18 17 16 14 13 12 11 10 10 11 11 11 13 14
11 9 9 9 9 10 10 11 12 13 14 15 17 18 19 19 20 20 20 20 19 19 19 18 17 16 15 15 13 12 11 10 9 9 8 8 9 10
6 6 6 7 8 9 9 10 11 13 14 15 17 17 18 19 20 20 20 19 19 19 18 18 17 17 16 16 15 14 13 11 10 8 6 5 4 5
4 5 6 7 8 9 10 11 12 13 14 15 16 17 18 19 19 19 20 20 19 19 19 19 18 18 18 18 17 16 15 13 11 9 7 5 2 1
6 7 7 8 9 10 11 12 13 14 15 15 16 17 18 19 19 19 19 20 20 20 20 20 20 19 19 19 19 17 16 15 13 12 10 7 5 4
8 8 9 9 10 11 12 13 14 15 16 16 16 17 18 18 19 19 19 19 20 20 20 20 21 21 21 20 19 19 18 17 15 14 13 11 9 8
9 10 10 11 11 12 13 14 15 15 16 16 17 17 17 18 18 19 19 19 20 20 20 20 21 21 21 21 21 20 20 19 18 17 16 15 14 12
11 11 12 12 12 13 14 15 15 16 16 17 18 18 18 18 18 18 19 19 19 20 20 20 20 21 21 22 22 22 21 21 20 19 19 18 18 17
12 12 12 12 13 13 14 15 15 16 16 17 18 18 18 18 18 18 19 19 19 19 19 19 20 21 21 21 22 22 22 22 21 20 20 20 20 20
13 13 13 13 13 13 14 14 15 16 16 17 18 18 18 18 18 18 18 18 19 19 19 19 19 20 21 21 22 23 23 23 22 21 20 20 20 20

GEFSNE_500_meanwind_066.txt.gz
Wind_Speed
53 54 55 56 58 58 58 59 60 61 63 65 67 68 69 69 70 70 70 70 70 70 70 69 68 68 68 68 67 67 66 65 64 63 63 62 62 62
56 57 58 59 59 60 61 62 63 64 64 65 66 67 67 67 68 68 68 67 67 67 67 67 66 66 65 63 62 61 60 59 58 58 57 58 58 58
59 59 60 60 60 61 63 63 64 64 64 64 65 65 65 65 65 65 64 64 64 64 63 62 60 58 57 56 55 53 53 53 53 53 53 53 54 54
60 60 61 61 62 62 62 63 63 63 62 61 61 62 62 62 61 61 61 61 60 58 56 54 52 51 50 49 49 48 48 48 48 48 48 48 48 49
60 61 61 62 62 62 61 61 61 61 60 59 59 59 58 58 57 56 55 53 52 50 48 47 46 45 45 44 44 43 43 43 43 43 43 43 43 43
61 61 61 60 60 59 59 58 58 59 58 57 56 54 53 52 50 48 46 45 43 43 42 41 41 40 40 40 39 39 39 39 39 39 39 39 40 40
60 59 58 57 57 56 56 56 56 56 54 51 49 47 46 45 44 42 40 37 37 38 37 36 36 35 35 35 35 35 35 35 35 35 36 36 37 37
57 55 54 54 54 54 55 54 52 49 46 44 42 41 40 39 37 35 33 32 32 32 31 31 31 30 30 30 30 30 30 30 30 31 33 33 34 34
54 52 52 51 51 50 49 46 44 41 39 37 35 34 32 30 28 27 28 28 29 28 27 27 27 27 28 27 27 27 27 27 27 28 29 30 30 31
50 48 47 46 45 43 40 37 35 34 32 30 29 27 24 23 23 23 24 24 25 25 24 24 25 26 26 25 25 25 25 25 25 26 26 26 27 28
43 42 40 39 36 33 30 29 28 27 25 23 21 20 19 20 20 21 21 21 22 23 23 22 22 23 23 23 22 22 21 22 22 23 23 23 23 24
35 33 31 29 26 24 23 22 21 20 19 17 17 17 18 18 18 19 19 19 19 19 20 20 20 20 20 21 20 19 19 18 18 18 18 18 19 20
25 23 21 19 17 17 16 16 15 14 14 14 15 15 16 16 17 17 18 18 18 19 19 19 19 19 19 19 18 18 17 16 15 14 14 14 14 15
15 14 12 11 11 10 10 10 10 11 11 12 13 14 15 15 16 16 17 18 19 19 19 19 19 18 18 18 18 17 16 15 13 12 12 12 12 13
8 7 6 6 6 7 7 8 9 10 11 11 12 14 15 15 15 16 17 18 19 20 20 20 20 19 19 19 18 17 16 14 13 11 11 9 9 9
4 3 4 4 5 6 7 8 9 10 11 11 12 14 15 16 16 17 18 19 19 20 20 21 21 20 20 19 19 17 16 15 13 12 10 8 6 5
5 5 6 6 7 8 8 9 11 11 12 12 13 15 16 17 17 18 18 19 19 20 20 20 21 20 20 20 20 18 17 16 14 12 11 9 6 4
7 8 8 8 9 9 10 11 12 13 13 14 15 15 16 17 18 18 18 19 19 20 20 21 21 21 21 21 20 19 18 17 15 13 12 11 9 7
9 9 9 10 11 11 11 12 13 14 15 16 16 17 17 17 18 19 19 19 19 20 20 21 22 22 21 21 20 20 20 19 17 16 15 14 13 11
10 10 11 11 12 12 13 14 15 16 17 17 18 18 18 19 19 19 19 19 18 19 20 21 21 22 22 21 21 21 21 21 20 19 18 18 17 15
10 11 11 12 12 13 14 14 15 16 17 18 19 19 19 19 19 19 19 19 18 18 19 20 21 22 23 23 23 23 22 22 22 22 21 21 20 19
11 11 11 11 12 13 14 15 16 17 18 18 19 19 20 20 19 19 20 19 18 18 18 19 20 21 22 22 22 23 23 23 22 23 23 22 22 22
11 11 11 11 12 13 14 15 16 17 18 19 19 19 19 20 20 19 19 19 19 18 18 19 19 20 20 21 22 22 22 23 23 23 23 23 23 23

GEFSNE_500_meanwind_072.txt.gz
Wind_Speed
48 50 52 54 56 57 59 60 61 61 62 64 65 66 66 67 67 68 68 68 68 68 68 68 68 67 67 67 67 67 66 66 65 65 64 64 63 63
53 55 57 59 60 61 62 63 64 65 65 65 66 66 67 67 67 66 66 66 66 65 65 64 63 62 62 61 61 61 60 60 60 60 60 60 60 60
58 60 61 62 63 64 65 65 65 65 65 64 65 65 65 65 64 64 63 62 62 61 60 59 59 59 59 58 57 56 55 55 55 55 55 55 55 56
62 63 63 64 64 64 65 64 64 63 63 62 62 62 62 62 61 60 59 58 57 56 55 55 54 54 53 51 50 49 48 47 47 47 47 48 48 49
63 63 63 64 64 64 64 63 62 62 61 60 59 59 58 58 55 53 53 52 51 50 49 49 48 47 44 43 42 41 41 41 41 42 42 43 43 44
62 62 61 61 61 61 60 59 58 58 56 55 54 53 52 50 48 46 45 45 45 44 43 41 39 38 37 37 37 37 37 38 38 38 38 39 39 39
60 60 60 60 59 58 56 55 54 52 51 49 48 47 45 43 42 40 39 38 38 37 36 35 34 33 33 32 33 33 34 34 34 34 34 34 35 36
58 57 56 55 54 52 50 48 47 45 43 42 40 38 37 36 35 34 33 31 30 30 30 31 31 31 30 30 30 31 31 31 31 31 31 31 32 32
52 50 49 47 45 43 42 40 38 37 35 32 31 31 30 30 28 28 27 27 26 26 26 28 29 29 28 28 28 29 29 28 28 29 29 29 29 29
45 43 41 39 36 34 32 31 29 27 25 24 24 24 23 22 22 22 22 23 24 24 24 25 26 26 26 26 26 26 26 26 26 26 27 27 27 27
37 34 31 29 26 24 23 21 20 19 18 18 18 17 17 17 18 19 20 20 21 22 23 24 25 25 25 25 24 24 23 23 24 24 24 24 24 24
27 24 22 20 18 17 16 15 15 15 15 15 14 14 15 16 17 18 19 20 20 21 22 23 24 24 24 25 24 23 23 22 22 21 20 19 19 19
19 17 15 14 13 12 12 11 12 13 13 13 14 15 16 17 18 19 19 20 20 21 22 23 23 23 23 23 23 22 21 21 20 19 18 16 15 15
14 13 11 11 10 10 10 10 11 12 12 13 14 16 17 17 18 18 19 20 20 21 21 22 22 22 22 22 21 21 21 20 19 17 16 14 13 12
11 10 9 9 10 10 10 11 11 12 13 14 15 16 16 17 18 18 19 19 20 20 21 22 22 22 22 21 21 20 19 19 17 16 14 12 11 9
10 10 10 11 11 11 12 12 12 13 14 15 16 16 16 17 18 18 18 19 19 20 21 22 22 22 21 21 21 21 20 19 18 16 15 12 11 9
11 11 12 12 12 13 13 13 13 14 15 16 16 16 17 17 18 18 17 18 18 19 21 22 21 21 21 21 21 22 22 21 19 18 17 15 12 10
11 12 12 13 13 13 14 14 15 15 16 16 17 18 18 18 18 17 17 17 18 19 20 21 22 21 21 21 22 22 23 22 21 20 19 17 15 13
11 12 12 13 14 14 14 15 16 17 17 18 18 19 18 18 18 18 18 17 18 18 19 20 21 21 21 21 22 22 22 23 22 22 21 19 18 17
12 12 13 13 14 14 15 15 16 18 18 19 19 19 18 18 17 18 18 17 18 18 18 20 20 20 20 21 22 23 23 23 24 23 23 22 21 20
12 13 13 14 15 15 16 16 17 18 19 19 19 19 18 18 17 17 17 18 18 18 18 18 19 19 21 21 22 22 23 24 24 24 25 24 23 22
12 13 14 14 15 16 17 17 18 18 18 19 19 19 18 18 17 17 17 17 18 18 18 18 19 20 20 21 21 21 22 24 24 25 25 25 23 22
13 13 14 15 16 17 18 18 18 18 18 19 19 19 19 18 17 17 17 17 18 18 18 19 19 19 19 19 20 21 21 22 23 24 24 25 25 25

GEFSNE_500_meanwind_078.txt.gz
Wind_Speed
45 46 48 50 52 54 55 57 59 61 63 64 64 65 66 66 66 67 67 67 67 66 66 66 66 66 67 67 68 67 66 66 65 64 65 65 65 66
48 49 51 53 55 57 58 60 62 63 64 65 65 66 66 66 66 66 65 65 64 64 64 64 64 64 64 63 62 62 62 61 61 61 62 62 62 62
51 53 54 56 57 59 60 61 61 62 63 64 65 65 64 64 64 63 63 62 62 61 60 60 59 58 56 56 55 54 54 54 55 56 56 56 56 57
53 55 56 57 57 58 58 58 59 59 60 60 61 61 60 59 59 58 57 56 55 54 53 52 51 50 49 48 48 48 48 49 49 50 51 52 52 52
54 55 57 58 58 57 57 57 57 56 55 55 54 53 52 52 50 49 48 48 47 46 45 44 43 43 42 42 42 42 42 43 44 44 45 45 45 45
53 54 54 54 54 54 53 53 52 51 49 48 46 46 45 44 42 42 41 41 40 38 37 36 36 36 36 36 37 38 38 39 39 39 39 39 39 40
49 50 50 50 50 50 49 48 47 45 43 41 40 39 37 36 36 35 35 33 32 32 31 31 31 31 32 32 32 33 34 35 35 36 36 36 37 37
46 46 46 45 45 44 42 41 39 36 35 34 33 31 30 30 29 29 28 27 27 27 28 29 29 29 30 30 30 30 31 32 33 33 33 34 34 35
42 41 40 39 38 36 34 32 30 29 28 27 26 25 25 24 23 23 23 23 23 24 25 26 26 26 27 28 28 29 29 30 31 31 31 31 32 32
36 35 34 32 30 28 25 23 21 20 20 20 20 20 19 19 20 20 20 21 21 22 22 23 24 25 25 26 26 26 27 27 28 28 29 29 29 29
29 28 26 24 21 20 19 18 17 16 16 16 16 16 17 18 18 18 18 19 19 20 21 22 23 23 24 24 24 24 25 25 26 26 26 26 26 26
24 23 20 19 17 16 15 15 14 14 14 15 15 15 15 15 16 16 17 17 18 19 20 21 21 21 21 22 23 23 23 24 24 23 23 23 23 22
20 18 17 16 15 14 14 13 13 13 13 14 14 14 15 15 15 16 16 17 18 18 19 20 20 20 20 20 21 21 22 23 23 22 21 20 19 18
16 15 14 14 13 13 13 13 13 13 13 14 15 15 15 15 16 16 16 16 17 18 19 19 18 18 19 19 20 21 22 22 21 21 20 18 17 15
13 13 13 12 12 12 13 13 14 14 14 15 15 15 16 15 15 15 15 16 17 17 18 18 17 17 18 18 18 20 21 21 21 20 19 18 15 13
11 11 11 11 12 13 13 14 15 15 15 15 15 15 15 15 15 15 15 16 16 16 17 16 16 17 17 17 18 20 21 21 21 21 20 18 15 13
10 11 11 12 12 13 13 14 15 15 15 16 16 15 14 14 14 15 15 15 15 15 15 15 15 16 17 18 19 20 21 21 21 21 20 19 17 14
10 11 11 12 12 13 14 14 15 15 15 16 15 15 14 13 13 13 14 13 14 14 15 15 16 16 17 18 20 20 21 21 22 22 21 20 18 16
10 11 12 12 13 13 14 14 14 14 15 15 15 14 14 13 13 13 13 13 12 13 14 15 16 17 17 18 19 20 22 22 22 22 22 21 20 18
10 11 12 13 13 14 14 14 14 14 14 14 14 14 14 13 13 13 13 12 12 12 14 14 16 17 17 18 19 20 21 22 22 23 23 22 22 21
10 11 12 13 14 14 14 14 14 14 14 14 14 14 13 13 12 12 12 12 11 12 13 13 15 16 17 19 20 21 21 22 23 23 24 23 22 21
11 12 12 13 13 14 14 14 14 14 14 14 14 13 13 13 12 12 11 11 11 12 12 13 14 15 16 18 20 21 21 22 23 24 24 23 23 22
11 11 12 13 13 13 14 14 14 14 15 14 14 13 13 13 12 11 11 11 11 12 12 13 13 14 15 17 18 20 21 22 23 24 24 24 24 24

GEFSNE_500_meanwind_084.txt.gz
Wind_Speed
43 45 46 48 49 50 51 53 54 55 57 58 60 62 63 63 63 64 64 65 65 65 65 65 65 65 65 66 66 65 65 65 64 64 64 64 64 64
46 46 47 49 50 51 52 54 55 56 57 58 60 61 60 61 61 62 63 63 63 62 61 61 61 61 62 62 62 62 61 60 59 59 58 58 58 59
46 47 48 48 50 51 52 52 53 54 56 57 57 57 57 58 58 58 58 58 57 56 56 55 55 56 56 56 55 55 55 55 54 53 52 52 53 53
46 47 47 48 49 49 50 50 51 52 53 53 53 54 54 54 54 54 53 52 51 50 49 49 49 49 48 48 48 48 47 47 47 47 47 48 48 48
45 46 46 45 45 47 47 48 49 49 49 49 50 50 50 49 48 48 48 46 45 43 42 42 42 41 41 40 40 40 40 41 41 42 42 43 43 44
44 44 44 44 45 45 46 46 46 46 46 45 45 44 43 42 41 40 39 39 38 37 36 35 34 34 34 34 34 35 35 36 37 38 38 38 39 40
41 41 42 42 42 43 43 42 42 41 39 38 37 36 35 34 33 32 31 31 31 31 30 30 29 30 30 30 30 30 31 32 32 33 34 35 36 37
38 38 38 38 38 37 36 35 34 33 31 31 30 29 28 27 27 27 27 26 26 26 26 26 27 27 27 28 28 28 28 28 29 30 32 33 34 34
33 33 32 31 31 30 29 28 28 27 26 26 25 25 25 25 25 25 24 24 23 23 23 24 24 25 25 25 25 25 25 26 27 29 30 30 31 32
29 29 29 29 28 27 26 25 25 24 24 24 23 23 23 23 23 23 22 22 21 21 21 21 22 22 23 22 22 22 23 24 25 26 28 28 29 30
26 27 27 26 25 25 24 23 23 22 22 22 22 21 21 21 21 20 20 19 19 19 19 19 20 20 21 21 21 21 22 23 24 26 26 27 27 27
24 24 24 24 23 22 21 21 20 20 20 20 20 20 20 20 19 19 18 18 18 18 18 19 19 19 19 20 20 21 22 23 24 25 26 25 25 24
21 21 21 20 20 19 19 19 19 19 19 19 19 19 19 18 18 18 17 17 17 17 18 19 19 19 19 19 20 21 23 24 24 25 25 24 23 22
18 18 18 18 18 18 18 18 18 19 18 18 18 18 18 17 17 16 16 16 17 17 18 19 19 20 20 20 20 21 23 24 24 25 25 24 23 22
15 16 16 17 17 16 17 18 18 18 18 17 17 17 16 16 16 16 15 15 16 17 18 19 20 20 20 20 21 22 23 24 24 24 24 23 22 21
14 15 15 16 16 16 17 18 17 17 16 15 15 15 15 15 14 14 14 14 15 16 17 18 19 19 20 21 21 22 24 24 24 24 23 22 22 21
14 14 14 15 15 16 16 17 17 16 15 14 14 14 14 14 13 13 13 14 14 15 16 18 19 19 20 21 21 23 24 25 24 24 23 23 22 21
13 13 13 14 15 15 16 16 15 15 14 14 14 14 13 14 13 13 12 13 14 15 15 17 18 19 20 21 22 23 25 25 25 24 23 22 22 22
12 12 13 14 14 15 15 16 15 14 14 13 13 13 13 13 13 12 12 12 13 14 14 15 17 18 19 21 23 24 24 25 25 25 25 24 23 22
12 12 13 13 14 14 15 15 14 14 13 13 13 13 12 13 12 12 12 12 12 13 14 15 16 17 19 21 22 23 25 25 26 26 26 26 25 24
11 12 12 13 13 14 14 14 14 13 13 13 12 12 12 12 12 11 11 11 11 12 13 14 15 17 19 20 22 23 24 25 26 26 26 27 26 26
11 12 12 13 13 14 14 14 14 13 13 12 12 11 11 11 11 10 10 10 10 11 12 13 15 16 17 19 21 22 24 24 25 26 26 26 26 26
11 12 12 13 13 14 14 14 14 13 13 12 11 11 11 11 10 10 10 10 10 11 12 13 14 15 17 18 20 21 23 24 25 26 27 27 27 27

GEFSNE_500_meanwind_090.txt.gz
Wind_Speed
39 40 40 40 42 42 43 45 46 47 48 49 49 50 50 51 52 53 54 55 56 57 58 59 60 61 61 62 62 61 61 61 61 62 62 63 63 63
40 41 41 42 43 44 45 46 47 47 48 49 50 50 50 51 51 51 51 52 53 54 55 56 56 56 56 56 56 56 56 56 56 56 56 58 58 59
40 41 42 43 44 45 45 46 46 47 48 48 49 49 49 48 48 48 49 50 50 51 52 52 52 51 51 51 51 51 51 52 51 50 50 51 53 53
40 41 42 43 43 44 44 45 45 46 46 46 45 45 45 45 45 46 46 46 46 46 46 46 45 44 44 44 44 45 45 46 46 46 46 45 46 46
39 40 41 41 42 42 42 42 42 42 42 41 41 41 41 42 42 42 42 41 41 40 40 39 38 38 38 38 38 38 38 38 38 39 39 39 39 40
38 38 39 39 39 39 39 38 38 38 38 38 38 39 38 38 38 37 37 37 36 35 34 33 33 33 33 33 33 32 32 31 31 32 32 33 34 36
35 36 36 36 35 35 36 36 36 36 36 36 36 36 35 34 33 33 33 33 32 31 30 29 28 28 28 28 27 27 27 27 27 27 28 29 30 32
33 32 32 33 33 33 34 33 33 33 33 33 33 32 31 31 31 31 30 29 28 27 25 25 25 24 24 24 24 24 24 24 24 25 26 27 28 30
30 30 30 30 31 31 31 31 30 30 30 30 30 29 29 29 28 27 26 25 23 22 22 22 22 22 22 22 21 22 22 22 22 23 25 26 27 28
28 28 28 28 28 28 28 27 27 27 27 27 27 26 25 24 24 24 23 22 20 20 20 20 20 20 20 20 21 21 21 22 23 24 25 26 26 27
25 25 25 25 25 25 25 25 25 24 24 24 24 23 23 22 22 21 20 20 19 19 19 19 19 20 20 21 21 22 22 23 24 25 25 25 25 25
23 22 22 22 22 22 22 23 23 23 23 22 22 21 20 20 20 19 18 18 17 18 18 18 19 19 21 22 22 22 23 24 24 24 24 23 23 23
20 20 20 20 21 21 21 21 21 21 21 21 20 19 19 18 18 17 17 16 16 17 17 18 19 20 21 22 22 22 23 24 24 23 22 21 21 21
19 18 19 19 19 19 19 19 19 19 19 19 18 17 17 16 16 16 15 14 15 16 17 17 19 20 21 21 21 22 23 23 23 23 22 21 20 19
17 17 18 18 18 18 18 18 18 18 18 17 16 16 15 15 14 14 14 13 15 16 16 17 18 19 20 21 21 22 23 23 23 23 22 21 20 19
15 16 16 16 17 17 16 16 17 17 16 16 15 15 14 14 14 13 13 14 15 15 16 16 17 19 20 21 22 23 23 23 23 23 23 22 21 20
13 13 14 15 14 15 15 15 16 16 15 14 14 14 14 14 13 13 13 13 14 14 15 16 17 18 20 21 22 23 24 24 24 24 24 24 22 21
12 12 13 13 14 14 14 15 15 15 14 14 13 13 13 13 13 12 11 12 12 13 14 15 17 18 20 21 22 23 24 24 25 25 25 25 24 22
11 12 12 13 13 13 14 14 14 14 13 13 12 12 12 12 12 11 11 11 11 12 13 14 16 17 19 20 22 22 23 24 25 25 25 25 24 23
11 11 12 12 12 13 13 14 13 13 12 12 11 11 11 11 11 11 10 11 11 12 13 14 15 17 18 20 21 22 23 24 25 25 25 25 25 25
11 11 11 12 12 13 13 13 13 12 12 11 10 10 10 10 10 10 10 10 11 12 12 14 15 16 18 19 21 22 23 25 25 26 26 26 26 26
10 11 11 12 12 12 12 12 12 11 11 10 10 10 10 9 9 9 10 10 10 11 12 14 15 16 17 19 20 21 23 24 25 26 26 26 26 25
10 11 11 12 12 12 12 12 11 11 10 10 10 9 9 9 9 9 10 10 11 11 12 14 15 16 17 19 20 21 22 23 24 25 26 27 26 27

GEFSNE_500_meanwind_096.txt.gz
Wind_Speed
37 38 39 40 41 41 42 43 43 44 45 46 47 48 49 49 49 49 50 51 50 50 50 50 51 51 52 53 54 55 56 56 56 56 57 56 56 57
38 39 40 41 41 42 42 43 44 45 46 46 47 48 47 47 47 48 48 49 49 49 48 49 49 50 50 50 51 51 51 51 51 52 52 52 52 52
39 40 40 41 42 43 43 44 44 45 45 45 45 44 45 45 45 45 46 46 46 46 46 46 47 47 47 47 47 46 46 46 46 46 46 46 48 49
39 39 40 40 41 42 42 43 43 43 43 43 43 42 42 43 42 42 43 43 43 43 43 43 43 43 43 42 42 42 42 41 41 41 41 41 42 42
38 38 39 40 40 41 41 41 41 41 41 41 40 40 40 41 41 41 41 40 40 39 39 39 39 38 37 37 37 37 37 37 37 36 36 36 36 37
36 37 37 38 38 39 39 39 39 38 39 38 37 38 38 39 39 38 37 36 36 35 35 34 34 33 33 34 34 34 33 33 33 33 33 32 32 33
35 35 36 36 36 36 36 36 36 36 35 35 35 35 36 36 35 35 34 33 33 32 32 32 31 31 31 31 31 31 31 31 31 30 30 30 31 31
33 33 33 33 33 33 33 33 32 32 31 31 31 32 32 32 32 32 31 31 30 30 30 29 28 28 28 28 28 28 29 29 29 29 29 29 30 30
30 30 30 30 30 30 29 28 28 28 28 28 29 29 29 29 29 29 28 27 27 26 25 25 25 25 25 26 27 27 27 28 28 28 29 29 29 29
27 27 27 26 26 25 25 25 25 25 25 26 26 26 26 26 25 25 24 24 23 22 21 21 22 23 24 24 25 25 26 27 27 27 27 28 28 27
24 24 23 23 23 23 23 23 23 23 23 23 23 24 23 23 23 22 21 21 20 20 19 19 20 21 23 23 24 24 25 26 26 26 26 27 26 26
21 22 22 22 22 21 21 22 22 21 21 21 21 21 21 20 19 18 18 18 17 17 17 18 18 19 21 22 23 24 25 26 25 25 26 26 25 24
20 20 20 20 20 20 20 20 20 19 19 19 20 20 19 18 16 16 16 16 15 15 16 17 18 19 20 22 23 24 24 24 24 25 25 24 24 23
17 17 17 17 17 17 17 18 18 17 18 18 18 18 17 16 15 15 15 15 14 14 15 16 17 18 20 21 22 23 23 23 24 24 25 24 23 22
15 15 15 15 15 15 16 16 16 16 16 16 16 15 14 14 14 14 14 13 12 13 14 15 17 18 19 20 22 22 22 22 23 24 24 23 23 22
14 14 14 13 13 14 14 14 14 14 14 14 14 13 13 12 12 12 12 12 12 13 14 15 16 18 19 20 21 22 22 22 23 23 24 23 23 23
12 12 12 12 13 13 13 13 13 13 13 13 12 12 12 11 11 11 10 11 11 12 13 14 15 17 18 20 21 22 22 23 23 23 24 24 24 24
11 11 12 12 13 13 12 12 12 12 11 11 11 11 10 10 10 10 9 10 11 12 12 14 15 17 18 20 21 22 22 23 23 24 25 25 25 25
11 11 12 12 12 12 12 12 11 11 10 10 10 9 9 9 9 9 8 9 10 11 12 14 15 16 17 19 20 21 22 23 24 24 25 25 25 25
10 11 11 11 11 11 11 10 10 9 9 9 8 8 8 8 8 8 8 8 10 11 12 14 15 16 17 18 20 21 23 24 25 25 25 26 26 26
10 10 10 10 10 10 10 9 9 8 8 7 7 7 7 7 7 7 8 9 10 11 13 14 15 16 18 19 20 21 23 24 25 26 26 27 27 27
9 9 9 10 10 9 9 8 8 7 7 6 7 6 7 7 7 8 9 10 11 12 13 14 16 17 18 19 20 21 23 24 25 25 26 27 27 27
10 10 10 9 9 8 8 8 7 7 6 6 7 7 7 8 8 9 10 11 12 13 14 15 16 18 19 20 21 22 23 24 25 26 26 26 27 27

GEFSNE_500_meanwind_102.txt.gz
Wind_Speed
37 37 38 39 40 40 41 42 42 42 42 43 44 44 45 46 46 47 48 48 47 48 47 47 47 48 48 48 48 48 49 49 49 50 50 51 51 52
37 38 39 40 41 41 42 42 42 42 43 44 44 44 45 45 46 47 47 47 46 46 47 46 46 47 47 47 47 47 47 47 47 48 48 49 51 51
37 38 39 40 40 41 41 41 42 42 43 43 44 44 45 45 45 45 45 45 45 45 45 45 45 45 45 45 45 44 44 44 44 44 45 46 47 47
35 36 37 38 39 40 40 41 41 41 41 42 42 42 43 43 43 43 43 42 43 43 43 42 42 42 41 41 40 40 40 40 40 40 41 42 43 44
34 35 36 37 38 38 38 39 39 39 40 40 40 41 40 41 41 41 41 41 41 40 40 40 39 38 37 37 36 36 36 36 37 37 37 38 39 40
35 36 36 37 36 37 37 37 37 38 38 38 38 38 38 38 38 38 38 38 38 37 36 36 35 35 35 35 34 34 34 35 35 35 36 36 35 35
33 33 34 34 34 34 34 35 35 35 35 36 36 35 35 35 35 35 35 34 33 33 32 32 32 32 31 31 31 31 32 32 33 33 33 32 32 33
31 31 31 32 32 32 32 33 32 32 33 33 33 32 31 31 31 31 30 30 30 29 29 28 28 28 28 28 29 30 30 30 31 31 31 31 31 31
29 30 30 30 29 29 29 30 30 30 30 29 29 28 28 27 28 27 27 26 26 25 25 25 25 25 25 26 27 27 28 28 29 29 29 29 29 29
27 27 27 27 27 27 27 27 27 26 26 26 26 25 25 25 25 24 24 23 22 21 22 23 23 23 23 24 24 25 26 26 26 26 26 26 26 26
24 24 24 24 25 25 24 23 23 23 23 23 23 23 23 22 22 21 20 19 19 19 20 20 20 21 21 22 22 23 23 23 24 24 24 24 24 24
22 21 22 22 22 21 20 20 20 20 20 20 20 20 19 19 18 17 17 17 17 17 17 17 18 19 20 20 21 21 21 21 21 22 22 23 23 23
19 20 20 19 19 18 18 18 18 18 17 17 17 16 16 15 15 14 14 14 14 15 15 16 17 17 18 18 18 19 19 20 20 20 20 21 22 22
17 17 17 16 16 16 16 16 15 15 15 15 14 13 13 13 12 12 11 12 12 13 14 15 15 16 16 16 17 18 18 19 20 20 20 21 21 21
15 15 14 14 14 14 14 14 13 13 12 12 11 11 11 10 10 10 10 10 11 12 12 13 13 13 14 15 16 17 17 18 19 20 20 21 22 22
13 12 12 12 13 13 13 12 11 10 10 10 9 9 9 8 8 9 9 9 10 10 11 11 11 12 13 14 15 16 17 18 19 20 20 21 22 22
11 11 11 11 11 11 11 10 9 8 8 8 8 8 7 7 7 7 7 8 8 9 10 11 11 11 12 14 15 16 17 18 19 20 21 21 21 22
9 9 9 10 9 9 8 8 8 7 7 7 6 6 5 5 5 6 6 6 7 8 10 10 11 12 13 14 15 16 18 18 19 20 21 21 22 22
7 8 8 8 8 7 7 7 6 6 6 5 5 4 4 4 4 4 5 6 7 8 9 10 11 12 13 14 15 17 18 19 20 21 22 22 22 22
7 7 6 6 6 6 6 5 5 5 4 3 3 3 3 3 3 4 5 6 7 8 9 10 11 12 13 14 15 16 17 19 20 21 21 22 22 22
5 5 5 5 5 5 4 4 3 3 2 2 2 2 3 3 4 5 6 7 7 8 9 10 11 12 13 14 15 16 17 19 20 21 21 22 23 23
5 5 5 4 4 4 4 3 3 2 2 3 3 4 4 4 5 6 6 7 8 8 9 10 11 12 13 14 15 16 17 18 20 21 21 22 23 23
5 5 4 4 4 4 4 3 3 4 4 4 5 5 5 6 6 6 7 7 8 8 9 10 11 12 12 13 15 16 17 18 19 20 21 22 22 23

GEFSNE_500_meanwind_108.txt.gz
Wind_Speed
37 38 38 39 39 39 40 40 41 41 40 41 42 42 42 43 44 44 44 45 45 45 45 46 46 46 47 48 48 48 48 48 48 48 48 48 48 48
35 35 36 37 39 39 39 40 41 42 42 41 42 42 43 43 43 43 42 43 44 43 43 44 45 45 46 46 46 46 46 46 46 45 45 45 45 45
33 34 35 35 36 37 38 38 39 40 40 41 41 41 41 42 42 42 42 42 42 42 43 43 43 43 44 43 43 42 42 41 42 42 42 42 42 43
32 32 33 34 34 35 35 36 37 38 38 39 39 39 40 40 41 41 41 40 41 41 42 41 41 41 41 40 39 38 37 37 37 38 38 38 39 39
30 30 31 32 32 33 33 34 35 36 36 37 37 37 38 39 39 39 38 38 38 38 38 38 37 37 36 35 35 35 35 35 35 34 34 35 35 36
27 28 29 29 30 31 32 33 33 34 35 35 35 36 36 35 35 35 35 35 35 35 34 33 33 32 32 31 31 31 32 32 33 33 34 34 34 34
26 27 28 28 29 30 30 31 31 32 32 32 33 33 33 32 31 32 32 32 32 31 30 30 29 29 29 28 29 29 29 30 31 31 31 31 31 31
26 26 27 28 29 29 29 30 30 29 29 29 29 29 29 28 29 29 29 29 28 28 27 26 26 25 25 25 26 27 27 27 28 28 28 28 28 28
25 25 26 27 28 28 28 28 28 28 28 27 27 26 26 26 26 26 26 25 24 23 22 22 23 23 23 24 24 24 25 25 25 25 25 25 26 26
25 25 25 25 26 26 26 26 26 25 25 24 24 23 23 23 23 23 21 20 20 19 19 20 21 21 22 22 22 23 23 23 23 23 23 23 23 24
24 24 24 24 24 24 24 24 23 22 21 21 21 21 20 20 19 19 18 17 17 17 17 18 19 19 19 19 19 20 20 21 22 21 22 22 22 22
22 22 22 21 21 21 21 21 20 19 19 19 19 18 18 17 16 15 15 15 15 15 16 16 17 17 17 16 16 17 18 19 19 20 21 22 22 22
20 20 20 20 19 18 18 18 18 17 17 17 17 16 15 14 14 13 13 13 14 14 14 14 14 15 14 14 15 16 17 18 19 19 20 21 21 22
18 18 18 17 17 17 16 16 15 15 15 15 14 13 12 12 11 11 11 12 12 12 12 12 12 12 12 13 15 16 17 18 18 19 20 20 21 21
17 16 16 16 16 15 14 13 13 13 13 12 11 11 10 10 9 9 9 9 9 10 10 10 10 10 12 13 14 15 16 17 18 19 20 20 20 21
14 14 14 14 13 12 12 12 11 11 11 10 10 9 9 8 7 7 7 7 7 8 8 8 9 10 11 12 13 15 16 17 18 19 20 20 21 22
12 11 11 11 11 11 11 11 10 10 9 9 8 8 7 7 6 6 6 5 5 6 6 7 8 9 10 11 12 14 16 17 18 19 20 21 22 22
9 9 9 9 9 9 9 9 9 8 8 7 6 6 5 5 4 4 4 4 4 5 6 7 8 9 10 11 12 14 15 17 18 19 20 21 22 23
7 7 8 8 8 8 8 8 8 7 6 5 4 4 4 3 3 2 2 3 3 5 6 7 8 9 10 11 12 14 15 16 18 19 20 21 22 22
6 6 6 6 6 6 6 6 6 5 4 3 3 2 2 1 1 1 2 3 4 5 6 7 8 9 10 11 13 14 15 16 17 19 20 21 22 22
6 6 5 5 5 5 5 4 4 3 2 2 1 0 1 1 1 2 3 3 4 5 6 7 8 9 11 12 12 14 15 16 18 19 20 21 22 23
5 5 5 5 5 4 4 3 3 2 1 1 1 1 2 2 2 2 3 4 4 5 6 7 9 10 10 11 12 14 15 17 18 19 20 21 22 23
6 5 5 5 4 4 3 3 2 2 2 2 2 2 2 2 3 3 4 4 5 6 7 8 9 10 10 12 13 14 15 16 18 19 20 21 22 23

GEFSNE_500_meanwind_114.txt.gz
Wind_Speed
31 31 33 34 35 35 36 36 36 36 37 38 37 38 39 39 40 40 41 41 41 41 41 41 42 42 42 43 43 43 44 44 45 45 45 45 46 46
30 31 32 34 35 34 33 35 35 36 36 37 38 38 39 39 39 39 38 39 39 40 40 40 40 41 41 41 41 41 41 42 42 42 42 41 41 41
29 30 31 31 31 31 32 33 35 35 36 36 37 37 37 37 37 37 37 38 38 39 40 39 39 39 39 39 38 38 38 38 38 38 37 37 36 36
28 29 29 29 29 29 30 32 33 33 34 34 34 35 35 35 35 35 36 37 37 37 37 37 38 37 37 36 35 35 35 34 34 34 33 33 33 33
26 27 27 27 27 28 29 29 30 31 31 31 32 32 33 33 34 34 34 34 34 34 34 34 34 33 32 32 31 31 32 32 32 31 31 31 31 31
25 25 25 26 27 27 27 27 27 28 28 29 29 30 31 31 31 31 30 30 31 31 31 30 29 28 28 28 28 28 28 28 28 28 27 27 27 28
24 24 25 25 25 25 25 25 25 26 27 27 28 28 28 28 28 28 28 28 28 27 26 26 25 25 25 25 25 25 25 25 25 24 24 24 24 24
23 23 23 22 22 22 23 23 24 25 26 26 26 26 26 26 26 25 25 25 24 24 24 23 23 23 22 22 22 22 22 22 22 22 22 22 22 23
22 21 20 20 21 21 22 22 23 24 24 24 24 24 24 24 24 23 22 22 22 22 21 21 20 20 19 19 19 19 20 20 20 20 20 21 22 22
19 19 20 20 20 21 21 22 22 22 22 22 22 22 22 22 21 20 20 20 19 19 18 18 17 16 16 16 16 17 18 19 18 18 19 20 21 21
18 18 19 19 19 20 20 20 20 20 20 19 19 19 19 19 18 17 17 16 16 15 15 15 14 14 14 14 15 16 17 17 17 17 18 19 20 21
17 18 18 18 18 18 18 18 18 17 17 17 18 18 17 17 15 15 14 14 13 13 12 12 12 12 13 13 14 15 16 16 16 17 18 19 19 20
15 15 16 16 16 16 16 16 16 16 15 16 16 15 15 14 13 12 12 12 11 11 10 10 10 11 11 12 12 13 14 15 16 17 17 18 18 19
13 14 14 15 15 15 14 14 14 14 14 14 13 13 12 11 10 10 10 9 9 9 9 9 9 9 10 10 11 12 14 15 16 16 17 17 18 19
12 12 12 12 12 13 13 13 13 13 12 12 11 11 10 9 9 9 8 8 8 8 7 7 7 8 9 10 11 12 13 14 15 16 16 17 18 19
11 11 11 11 11 11 11 11 11 11 10 10 9 9 8 7 7 7 7 6 6 6 6 6 7 8 9 10 11 12 12 13 14 16 16 17 18 18
9 9 9 9 10 10 9 9 9 9 8 8 7 7 6 6 6 5 5 5 5 4 4 5 6 8 9 10 11 11 12 13 14 15 16 17 18 19
6 7 7 8 8 7 7 7 7 6 6 6 5 5 4 4 4 4 3 3 3 3 4 5 6 8 9 10 10 11 12 13 14 15 17 18 18 19
4 4 5 5 5 4 4 5 4 4 4 3 3 2 2 2 2 2 2 2 2 2 4 5 6 8 8 9 10 11 12 13 15 16 17 18 19 20
3 3 3 3 3 3 3 3 3 2 1 1 1 1 0 0 0 1 1 1 2 3 4 5 6 7 8 9 10 11 12 14 15 16 17 18 19 20
4 4 3 3 3 3 3 2 2 1 0 0 1 1 1 1 1 1 1 2 2 4 5 6 7 7 8 9 10 12 13 14 15 16 17 18 20 21
6 5 5 4 4 4 3 3 2 2 2 2 2 2 2 2 2 2 2 2 3 4 5 6 6 7 8 9 10 12 13 14 16 17 18 19 20 21
8 7 7 6 6 6 5 5 4 4 4 3 3 3 2 2 2 2 2 3 4 5 5 6 7 7 8 9 11 12 13 15 16 17 19 20 21 22

GEFSNE_500_meanwind_120.txt.gz
Wind_Speed
31 32 33 33 34 35 35 35 36 36 37 37 37 38 39 39 39 39 39 40 39 39 40 40 41 41 42 42 42 42 42 42 42 41 40 41 41 41
30 31 32 34 34 35 35 36 36 37 37 37 38 38 39 39 39 39 39 39 39 40 40 40 40 41 41 40 40 40 39 39 38 38 38 38 38 39
29 30 31 32 32 33 35 35 35 36 36 37 37 37 37 38 38 38 37 38 38 39 39 38 38 38 38 38 38 38 37 36 36 35 35 34 35 35
28 30 30 30 31 32 33 33 34 34 34 33 34 35 36 36 36 36 36 37 36 36 36 37 37 36 35 35 35 35 34 33 33 33 33 33 32 31
28 28 28 29 29 30 30 31 31 31 31 32 32 33 33 34 34 34 34 34 34 34 35 35 34 34 34 34 33 32 32 31 31 31 30 29 29 29
27 26 27 27 28 28 29 29 29 30 30 31 31 31 31 31 32 32 32 33 33 33 33 33 32 32 32 31 30 30 29 29 28 28 27 27 27 27
25 25 25 25 26 27 27 27 27 28 29 29 29 29 29 30 30 31 31 31 32 31 31 30 30 30 29 28 27 26 26 25 25 24 25 25 25 25
23 24 24 24 25 25 25 25 25 26 26 26 26 27 27 28 29 29 29 29 29 28 27 27 26 26 25 24 24 24 24 22 22 23 23 22 23 23
22 22 22 23 23 23 23 23 23 23 23 24 24 25 25 26 27 27 27 27 26 25 25 24 23 23 23 22 22 21 21 20 21 21 21 21 21 22
21 21 21 21 22 22 22 22 21 22 22 23 23 24 24 24 24 25 24 23 23 22 22 21 21 21 20 19 19 18 19 19 19 19 19 20 20 20
20 20 20 21 20 20 20 21 21 22 22 22 22 22 22 22 22 22 22 21 21 20 20 20 19 18 18 17 16 16 16 17 17 17 17 18 18 19
18 19 19 19 18 18 19 19 19 20 20 20 20 20 19 19 19 19 19 19 18 18 18 17 16 15 15 14 13 13 14 14 15 16 16 17 17 18
15 15 16 15 16 16 16 17 17 17 17 17 17 17 17 17 16 16 15 15 14 14 13 13 12 12 11 11 11 11 12 13 14 14 15 16 16 17
12 13 13 14 13 14 14 14 14 15 15 15 15 15 14 14 13 12 11 11 11 10 10 9 9 9 9 9 10 10 11 12 13 13 14 15 16 16
10 11 12 12 12 12 12 13 13 13 13 13 12 12 11 11 10 9 9 9 8 8 8 7 7 7 7 8 9 10 11 11 12 12 13 14 15 16
9 9 9 9 10 10 11 11 11 11 11 10 10 9 9 8 8 7 7 7 6 6 5 5 5 6 6 7 9 9 10 11 11 12 13 14 15 16
7 7 7 8 8 8 8 8 8 8 8 8 8 7 7 6 5 5 5 5 4 4 4 3 4 5 6 8 8 9 10 10 11 12 13 14 15 16
4 5 5 6 6 6 6 6 6 6 6 6 5 5 4 4 4 4 3 2 2 2 2 3 4 5 6 7 8 8 9 10 11 12 13 14 15 16
4 5 4 4 4 4 5 5 5 4 4 3 3 2 2 2 2 1 1 1 1 2 2 3 4 5 7 7 8 8 9 10 11 12 13 14 15 16
6 5 5 5 5 4 4 4 4 3 2 2 1 1 1 1 1 1 1 2 2 2 3 4 5 6 7 7 8 8 9 10 11 12 13 14 15 16
7 7 7 6 6 6 6 5 5 4 4 3 3 3 3 3 2 2 2 3 3 3 4 5 6 6 7 7 8 9 10 11 12 13 14 14 15 16
10 9 9 9 8 8 7 7 6 6 5 5 4 4 4 3 3 3 3 4 4 5 5 6 7 7 8 8 9 10 11 11 12 14 14 15 16 17
12 12 11 10 10 9 9 8 7 7 6 6 5 4 4 4 4 4 4 5 5 6 7 7 8 8 8 9 10 10 11 12 13 14 15 16 17 18

GEFSNE_500_meanwind_126.txt.gz
Wind_Speed
34 36 36 36 36 36 36 36 36 37 37 38 38 38 38 39 39 39 40 41 40 41 41 40 40 40 41 40 40 40 40 40 41 41 41 41 41 41
35 35 36 36 36 36 36 37 38 38 38 37 37 38 38 38 39 40 41 40 40 40 40 39 39 39 40 40 40 40 39 39 40 40 39 39 39 39
34 34 33 34 36 37 36 37 38 38 38 37 37 37 39 40 40 40 40 40 40 39 39 38 38 38 38 38 38 37 37 38 38 37 36 36 36 36
32 33 33 34 35 35 35 36 36 36 36 37 37 37 38 39 39 39 39 38 38 37 37 36 37 37 36 36 36 35 35 35 34 34 34 34 34 34
31 32 32 33 34 33 34 34 34 33 33 34 35 35 36 36 36 36 36 36 35 35 34 34 35 34 34 34 33 33 32 32 33 33 32 32 32 32
29 29 29 30 30 31 31 31 31 32 31 32 32 32 32 32 32 33 33 33 33 33 33 33 33 33 32 32 31 31 30 30 30 30 30 29 29 29
27 27 27 27 27 28 27 28 29 29 29 29 29 30 30 30 31 30 30 30 30 30 31 31 30 30 29 28 28 27 27 28 27 27 27 27 27 27
24 24 24 24 25 25 25 25 26 26 26 26 27 27 27 28 28 27 27 27 27 28 28 28 27 26 26 25 25 26 26 26 25 25 24 24 24 25
21 21 22 23 22 22 22 23 23 23 23 24 24 25 25 25 25 25 25 25 25 26 26 25 24 23 23 23 23 23 23 23 22 22 22 22 22 22
19 19 18 18 19 19 19 19 20 21 22 22 22 22 22 22 22 22 23 23 24 23 23 22 21 21 21 21 21 21 21 21 21 20 20 20 20 20
16 17 16 15 16 16 16 17 18 18 19 19 19 19 20 20 20 20 20 20 20 20 19 19 19 19 19 19 19 19 19 18 18 18 18 18 18 18
14 14 13 13 14 14 14 15 16 16 16 16 16 16 17 17 17 17 17 17 17 17 17 17 17 16 16 16 16 16 15 15 16 16 17 17 17 17
11 11 11 12 12 12 12 12 12 13 13 14 15 15 15 15 15 15 15 15 15 15 14 14 14 14 14 14 14 14 14 14 15 15 15 15 15 15
7 8 9 10 10 10 10 10 10 11 11 12 12 12 13 13 12 12 11 11 12 11 11 11 11 11 12 12 12 13 13 13 13 13 13 13 14 14
6 7 7 7 7 8 8 8 9 9 9 9 9 10 10 10 10 9 8 8 8 9 8 8 9 9 9 10 10 11 11 12 12 12 12 12 13 13
4 4 4 4 4 5 6 6 6 7 7 7 8 8 8 7 7 7 7 7 7 7 7 7 7 7 7 8 9 10 10 10 10 10 11 11 12 13
1 1 1 1 1 2 3 3 4 5 5 5 5 5 5 4 5 5 5 6 6 6 6 5 6 6 7 8 9 9 10 10 10 10 11 12 12 13
3 4 4 3 3 2 3 4 3 3 3 3 3 3 3 3 3 3 4 4 4 4 4 5 6 7 7 8 9 9 10 10 11 11 11 12 12 13
6 6 5 5 4 4 4 4 3 3 3 3 3 3 2 2 2 2 2 3 3 3 4 5 6 7 8 9 9 9 10 11 11 11 12 12 13 13
8 7 6 6 6 5 5 5 5 5 4 4 3 3 2 2 2 2 2 2 3 4 5 6 7 8 9 10 10 10 11 11 12 12 13 13 14 15
10 9 9 8 8 7 7 6 6 6 5 5 4 4 4 3 3 3 3 3 4 5 6 7 8 9 10 10 11 12 12 12 13 13 14 15 15 16
11 11 10 10 9 8 8 7 7 7 6 6 5 5 4 4 4 4 4 4 5 6 7 8 9 10 10 11 12 13 13 14 14 15 16 16 17 17
12 11 11 10 10 9 9 8 8 7 7 6 6 5 5 5 5 5 5 6 7 8 9 10 10 11 12 12 13 13 14 15 16 16 17 18 18 19

GEFSNE_500_meanwind_132.txt.gz
Wind_Speed
34 35 36 35 36 35 34 34 35 35 36 36 36 36 36 36 37 37 37 36 37 38 39 40 39 39 39 38 38 37 36 36 36 36 36 37 38 38
33 33 34 34 35 36 35 35 35 35 35 36 37 38 38 37 37 38 38 38 38 39 38 38 38 38 38 37 37 37 36 36 35 35 36 37 37 36
32 33 33 33 34 35 35 35 35 35 35 35 35 36 37 37 37 37 37 36 37 37 37 37 36 37 37 36 36 35 35 34 34 34 35 34 33 33
31 32 32 32 33 34 34 34 34 35 35 35 34 33 33 34 34 33 33 34 34 34 34 34 33 33 33 33 33 33 32 32 32 32 32 31 30 30
29 29 30 29 30 31 31 31 32 32 33 33 32 32 32 32 31 31 31 31 31 31 32 31 30 30 31 31 31 31 31 31 31 30 29 29 28 28
27 26 26 27 27 27 28 28 29 29 29 30 30 30 29 29 28 28 28 28 29 29 28 28 28 28 29 29 29 29 29 29 29 28 28 27 26 26
24 24 24 25 26 25 26 25 25 26 26 26 27 27 27 26 26 26 26 27 27 27 26 26 26 27 27 27 27 27 26 26 25 25 24 24 24 23
21 22 22 22 22 23 23 22 22 22 22 23 23 23 23 24 24 24 24 24 24 24 24 25 25 25 25 25 24 23 23 23 23 22 21 21 21 21
19 19 20 21 21 20 19 20 20 20 20 20 20 20 20 20 21 21 21 22 22 22 22 23 23 22 21 21 21 20 20 20 20 20 20 19 19 19
18 17 17 17 17 17 17 17 17 17 17 17 17 17 17 17 17 17 18 19 19 19 19 19 19 18 19 18 17 18 18 18 18 18 17 18 18 18
14 13 13 13 13 13 13 12 12 12 13 14 14 14 14 14 15 15 15 16 16 16 17 17 17 17 16 16 15 16 16 16 16 16 16 17 17 17
9 10 10 9 8 9 9 8 8 8 9 10 11 11 12 13 13 14 14 14 14 15 15 14 14 14 14 14 14 14 15 15 15 15 15 16 16 16
5 5 5 4 4 5 5 5 6 7 7 8 8 9 11 11 12 12 12 12 12 12 12 12 12 12 12 12 12 13 13 13 14 14 15 15 15 15
1 2 3 3 3 3 4 4 4 5 6 7 7 7 8 9 10 10 10 10 10 9 9 9 9 9 10 11 11 11 12 12 13 13 14 14 14 14
0 0 2 1 1 1 1 3 4 4 5 5 5 6 6 7 8 7 7 7 6 7 7 8 8 9 9 9 10 10 11 11 12 12 12 13 13 13
2 2 3 2 1 2 1 2 2 3 4 4 5 5 5 5 4 4 5 5 6 6 6 7 7 7 7 8 8 9 10 11 12 12 13 13 13 14
4 5 4 4 4 4 5 4 4 4 4 4 5 5 5 5 4 4 5 5 5 5 5 5 6 6 7 7 8 9 11 12 13 13 13 14 14 15
7 7 7 7 7 7 7 6 6 6 6 6 6 6 5 5 5 6 6 5 5 5 5 5 6 6 7 8 10 11 12 13 14 14 14 15 16 16
10 9 9 9 8 8 8 7 7 7 7 7 7 7 6 7 7 6 6 6 5 6 6 6 7 8 9 10 11 13 13 14 15 15 16 16 17 17
12 11 11 10 9 9 8 8 8 8 8 7 7 7 7 7 7 7 7 7 7 7 7 8 9 10 11 12 13 14 15 15 16 17 17 17 18 18
13 13 13 12 11 10 9 9 9 8 8 8 8 8 8 8 8 8 8 8 8 8 9 10 11 12 13 14 14 15 16 17 18 18 18 19 19 20
14 14 13 13 12 11 11 10 9 9 9 9 8 8 8 8 9 9 9 9 10 10 11 12 13 14 15 15 16 16 17 18 19 19 20 21 22 22
14 13 13 13 12 12 11 11 10 10 10 9 9 9 9 9 9 10 10 11 12 12 13 14 15 16 17 17 18 18 18 19 19 20 21 22 23 24

GEFSNE_500_meanwind_138.txt.gz
Wind_Speed
28 28 27 28 28 29 30 30 31 31 31 31 31 32 32 31 31 32 33 33 34 34 35 35 35 35 35 35 36 37 37 37 37 37 37 37 38 39
29 29 29 29 29 29 29 30 31 31 30 31 31 31 31 31 32 32 32 33 34 34 33 33 34 35 35 34 35 35 35 36 36 36 36 36 37 37
28 29 29 28 29 29 29 29 30 30 30 30 31 31 31 31 32 33 33 33 33 33 33 33 34 34 34 34 33 34 35 35 35 35 35 35 35 34
27 27 27 28 28 29 29 29 29 29 30 30 31 32 32 31 32 32 33 32 32 32 32 32 33 32 32 33 33 33 33 33 33 33 33 33 33 32
25 26 26 26 27 27 27 28 28 28 28 29 30 30 30 30 30 31 30 30 30 31 31 31 31 30 31 31 30 30 30 31 31 31 31 30 30 29
23 23 23 23 24 26 26 26 26 27 27 28 28 28 28 29 29 29 29 29 28 28 28 29 29 29 29 28 28 28 28 28 29 29 28 28 27 27
20 20 21 21 22 23 24 24 24 24 25 25 25 25 26 25 25 25 26 26 25 25 26 27 27 28 27 26 26 26 27 27 27 27 26 26 26 25
18 18 18 19 20 20 20 20 21 21 21 22 22 21 21 21 21 21 21 22 23 22 23 23 23 24 24 24 24 25 25 25 25 24 24 23 23 22
16 16 16 16 16 16 16 17 17 17 17 17 18 17 17 17 18 18 18 18 19 19 20 21 21 21 21 22 22 22 22 22 21 21 20 20 20 20
13 13 12 12 13 13 13 13 13 14 14 14 15 14 14 14 15 16 16 17 17 17 18 19 19 19 19 19 19 19 18 18 17 17 17 17 18 18
10 10 10 10 10 10 10 10 11 11 11 11 11 11 12 13 13 14 14 14 15 16 16 16 16 16 16 15 15 15 15 15 16 16 16 16 16 16
7 6 6 7 7 7 6 7 7 7 8 9 9 9 9 9 10 10 11 12 12 13 13 13 13 13 12 13 13 13 13 14 14 14 14 14 14 15
3 3 2 3 3 4 5 5 5 5 6 6 6 6 6 6 7 8 9 10 10 10 10 10 10 10 11 11 11 11 12 12 12 13 13 13 14 15
2 2 3 4 5 5 5 4 3 3 3 3 3 2 3 3 4 5 6 7 7 7 7 8 8 9 9 9 10 10 10 10 11 12 12 13 14 15
5 6 7 8 7 6 6 5 4 4 4 3 2 1 1 0 2 2 3 4 5 6 6 6 7 7 8 8 8 9 9 10 11 12 13 14 15 15
9 9 9 9 9 9 8 7 6 6 6 5 5 4 3 2 2 2 2 3 3 4 4 5 6 6 6 6 7 8 9 10 11 13 14 15 15 16
10 11 10 10 11 10 9 9 9 9 8 7 6 5 5 4 4 4 4 3 3 3 4 5 5 5 6 7 8 9 10 11 13 14 14 15 16 17
12 11 11 12 12 12 11 10 10 9 8 7 6 6 5 5 5 5 5 5 4 5 5 5 5 6 7 8 9 10 11 12 13 14 15 16 17 19
13 13 12 12 12 11 10 9 8 8 7 7 6 6 6 6 6 5 5 5 6 6 6 6 6 7 8 9 11 12 13 14 15 16 17 18 19 19
14 14 13 13 12 11 10 9 9 8 8 8 7 7 7 6 6 6 6 7 7 7 7 8 8 9 10 11 12 14 15 16 17 18 18 19 20 21
15 14 13 12 11 11 10 10 10 9 9 9 8 8 7 7 7 7 7 7 8 8 9 10 10 11 13 14 15 16 17 18 19 20 21 21 22 22
15 14 13 12 12 11 10 10 9 9 9 9 9 8 8 8 8 8 8 9 9 10 11 11 13 14 15 16 17 18 19 20 21 22 23 24 24 24
13 13 12 12 12 11 10 10 10 9 9 10 10 10 10 10 10 10 10 11 11 12 13 14 15 16 17 18 19 20 21 22 23 24 25 26 27 27

GEFSNE_500_meanwind_144.txt.gz
Wind_Speed
28 28 29 29 29 29 29 29 29 29 30 30 30 30 32 33 33 33 34 34 35 36 36 36 36 37 37 38 38 38 39 39 39 39 38 38 38 39
28 28 28 29 29 29 29 29 29 29 29 29 29 30 31 32 33 33 34 34 34 35 35 35 36 37 37 37 37 37 36 36 37 37 37 37 38 37
26 26 27 27 28 29 29 29 29 29 29 29 30 31 32 33 33 33 33 33 34 35 34 35 35 35 35 36 35 35 35 35 35 36 35 35 35 35
26 26 26 27 27 28 28 28 29 29 29 28 30 31 31 32 32 32 32 33 33 33 33 33 33 34 34 34 34 35 34 34 34 34 34 35 34 34
25 25 25 26 26 26 27 28 29 29 29 29 29 29 29 30 30 30 30 32 33 32 32 32 32 33 33 33 34 34 34 34 33 33 33 32 32 33
24 24 24 25 25 25 26 26 27 28 28 28 28 28 28 29 29 29 30 31 31 32 32 32 32 32 32 33 33 33 32 32 31 31 31 30 30 30
23 23 23 23 23 23 23 23 24 25 25 25 26 26 26 27 27 27 28 29 29 30 30 30 31 31 31 31 30 30 29 29 28 28 28 28 28 28
20 20 20 20 19 20 20 20 20 21 22 22 23 23 23 23 24 24 25 26 26 27 28 28 28 28 28 27 27 27 26 26 25 26 26 26 26 26
18 18 17 17 17 17 17 17 17 18 19 19 19 19 20 20 21 21 22 22 23 24 25 25 25 24 23 23 23 22 22 23 23 23 23 24 23 23
15 14 14 14 14 14 14 14 14 14 15 15 15 15 16 17 17 17 18 18 19 20 20 20 20 20 19 18 18 18 19 19 20 20 21 21 21 21
11 11 10 10 10 10 10 11 11 11 11 11 11 12 12 12 13 14 14 14 14 14 14 14 15 15 15 14 15 15 16 17 17 17 18 18 19 19
6 6 6 5 6 6 6 7 7 7 7 8 8 7 8 8 8 9 9 9 10 10 10 10 11 11 12 12 13 14 15 15 15 16 16 16 17 17
2 2 2 2 2 2 3 3 4 5 4 4 4 4 4 5 5 5 6 6 7 7 7 8 9 10 11 11 12 12 12 13 13 14 14 15 15 16
4 4 3 2 3 3 3 3 3 3 3 2 2 1 1 2 2 3 4 4 5 6 7 7 8 9 10 10 10 11 11 13 13 14 15 16 16 17
6 7 7 7 7 6 6 5 5 4 4 4 3 2 1 1 2 2 3 4 5 6 6 7 8 8 8 9 10 11 12 13 13 14 15 16 17 18
8 8 9 9 9 9 8 7 7 6 6 5 5 4 4 3 3 3 4 4 5 6 6 6 7 7 8 9 10 10 11 12 13 14 15 16 18 19
11 12 12 11 11 10 10 10 9 9 8 7 6 5 4 3 4 4 5 5 6 6 6 7 8 8 9 10 10 11 12 13 14 15 16 17 19 20
14 14 14 13 13 13 13 12 11 10 9 8 7 6 5 6 6 6 6 7 7 7 8 8 9 9 10 12 13 13 14 15 16 17 18 19 20 22
15 15 15 15 15 14 13 12 11 10 9 8 8 7 7 7 7 7 7 8 9 9 9 10 11 11 12 13 14 15 16 17 18 19 20 21 22 23
15 14 14 14 13 13 12 11 10 10 10 9 9 8 8 8 8 8 9 10 10 11 11 12 12 13 14 15 15 16 18 19 20 21 22 23 24 25
14 13 13 13 12 12 12 11 11 11 10 10 10 9 9 9 10 10 10 11 12 12 13 13 14 15 16 17 18 19 20 22 23 24 25 26 26 27
13 13 13 13 13 12 11 11 11 11 11 10 10 11 11 11 11 11 12 12 13 14 14 15 16 17 18 19 20 21 22 24 25 26 27 29 29 30
13 13 12 12 11 11 11 11 10 10 10 10 11 11 12 12 12 13 14 15 15 16 17 18 19 19 20 21 22 23 24 26 27 29 29 31 32 32

GEFSNE_500_meanwind_150.txt.gz
Wind_Speed
30 30 31 31 30 30 30 30 30 30 31 31 31 31 32 32 32 32 33 33 33 33 34 35 36 36 35 35 35 35 35 35 36 37 36 36 37 36
29 29 29 30 30 30 30 30 30 30 30 31 31 31 31 30 30 30 31 31 31 32 34 35 34 33 34 34 34 34 34 34 35 35 34 34 34 34
28 28 28 28 28 29 29 29 28 28 28 29 29 30 30 30 30 30 29 30 31 32 33 34 34 34 33 33 32 33 33 33 34 33 32 32 32 31
26 26 26 27 27 27 28 28 27 27 27 27 28 28 28 28 28 29 29 29 29 30 31 32 32 33 32 32 31 32 32 32 33 32 30 30 30 30
24 24 25 25 25 26 26 26 26 26 27 27 27 26 27 27 27 27 28 28 29 29 29 30 30 31 30 30 30 30 30 30 30 30 28 28 28 28
23 23 23 24 24 24 24 24 24 25 25 26 26 26 25 25 26 26 26 26 27 28 28 29 28 29 29 29 29 28 28 27 27 27 27 27 27 28
22 21 21 22 22 22 22 23 23 23 24 24 25 25 24 23 24 24 24 23 24 24 25 26 27 27 27 27 26 26 27 26 25 25 26 26 26 27
19 20 20 20 20 20 21 21 21 21 21 21 22 22 22 22 22 21 21 21 21 21 22 23 24 25 25 25 25 24 23 23 23 24 25 25 25 24
17 17 17 17 17 17 18 18 18 18 18 17 18 18 18 18 19 18 18 18 19 19 19 20 21 21 21 21 21 21 20 20 21 21 22 22 21 22
13 13 13 13 14 14 14 14 15 15 15 14 14 14 14 13 13 14 14 15 16 16 16 17 18 18 18 17 17 17 17 18 18 18 19 19 20 20
9 8 8 9 9 10 10 10 11 11 11 11 10 10 10 10 10 11 12 12 12 12 12 12 12 12 13 13 13 14 14 15 16 16 17 18 18 19
5 5 5 5 5 5 6 6 7 7 8 8 8 8 7 7 7 7 7 8 8 7 7 8 9 9 10 10 11 12 12 13 14 15 16 16 17 17
3 3 2 1 1 2 3 3 4 4 5 5 5 4 4 3 3 4 4 4 4 5 6 7 8 8 8 9 9 11 12 13 14 15 15 16 16 17
3 3 3 3 3 4 5 5 4 4 4 4 4 4 3 2 2 2 2 3 3 5 5 6 7 7 7 8 9 11 12 13 14 15 15 16 17 19
6 6 6 6 7 7 7 6 6 6 6 5 5 5 4 2 1 0 1 2 4 5 6 5 6 6 8 8 9 10 11 12 14 15 16 17 19 20
8 8 9 9 10 10 9 9 9 8 7 6 5 4 4 3 2 2 2 2 3 4 5 6 6 7 8 9 10 11 12 13 14 15 16 17 18 19
11 11 12 12 12 11 11 10 9 9 9 8 7 6 5 5 4 4 4 3 4 5 6 7 8 8 9 10 12 13 14 15 16 17 17 18 19 20
11 12 13 13 13 12 12 12 11 11 10 9 8 7 6 6 5 5 5 5 6 7 8 8 9 10 11 12 13 14 15 16 17 17 18 19 20 22
13 13 13 13 13 13 12 11 10 9 8 7 7 7 6 6 6 6 7 7 8 9 9 10 11 12 13 14 15 16 17 17 18 19 20 22 23 24
13 13 13 13 12 12 11 11 10 9 8 8 7 7 7 7 7 8 8 8 9 10 11 12 13 14 16 16 17 17 18 19 20 21 23 24 25 26
12 12 13 13 12 12 11 10 9 9 9 8 8 8 8 8 8 8 9 10 11 12 13 14 16 17 18 18 19 19 20 21 22 24 25 27 27 28
12 12 12 11 11 10 10 9 9 9 9 9 9 9 9 9 9 10 11 12 13 14 16 17 18 19 20 20 21 22 22 24 25 27 28 29 30 31
11 10 10 9 9 9 9 8 8 8 8 8 9 9 10 10 11 12 13 14 16 17 18 19 20 21 22 23 24 25 26 27 29 30 31 32 33 33

GEFSNE_500_meanwind_156.txt.gz
Wind_Speed
28 28 28 28 28 28 29 29 29 29 29 29 29 28 29 29 29 28 28 28 28 28 28 28 28 28 28 29 29 30 31 33 33 34 34 34 33 32
27 28 28 28 28 28 28 29 29 29 29 28 28 28 27 28 28 28 28 28 27 27 27 27 27 27 26 27 28 30 30 31 32 33 33 32 32 31
26 26 27 27 27 27 26 27 27 27 27 26 27 27 27 26 27 27 26 26 26 26 26 26 26 26 26 26 27 29 30 30 30 31 30 29 29 30
25 25 25 25 25 25 25 25 25 26 25 24 24 24 24 24 25 25 24 24 25 25 25 25 25 25 26 26 27 28 28 28 28 28 27 27 27 27
23 23 23 23 23 24 24 24 23 23 23 22 23 23 22 22 22 23 23 23 23 24 24 25 24 24 24 25 25 25 25 26 26 26 26 26 26 25
22 22 22 22 22 22 22 22 22 22 22 22 22 22 22 22 21 22 21 22 22 22 23 23 23 23 22 22 23 23 23 23 23 23 23 23 24 24
20 20 21 21 21 21 21 22 21 21 21 21 21 21 20 20 20 20 20 20 20 20 20 20 20 21 21 21 22 22 22 22 22 22 22 22 23 23
18 18 18 19 19 19 18 19 19 19 19 20 20 20 19 18 18 17 17 17 17 18 18 18 19 20 20 20 21 21 21 21 21 21 21 21 21 22
16 15 15 14 14 14 14 15 15 15 16 16 17 17 17 16 16 16 15 16 16 16 17 17 17 18 18 19 19 19 18 18 18 18 19 20 20 21
12 12 11 11 11 11 11 11 12 13 13 13 13 14 13 14 13 14 14 15 14 14 14 14 14 15 15 16 15 15 15 15 16 16 17 18 19 19
9 9 9 9 9 9 9 9 9 9 10 10 10 10 10 10 10 10 10 10 9 10 9 10 11 12 12 12 12 12 14 15 15 14 15 17 18 18
8 8 7 6 6 7 7 6 6 6 7 7 7 7 7 7 7 6 6 6 6 7 8 9 9 9 10 10 11 12 13 13 13 14 15 17 18 19
7 6 5 4 4 4 4 4 4 4 4 5 5 5 5 5 4 4 5 5 5 6 7 7 8 9 9 10 11 12 12 12 13 14 15 16 17 18
5 4 4 2 1 1 0 1 2 2 2 3 3 2 2 2 2 2 2 2 3 4 6 7 8 8 9 10 10 10 11 12 13 14 15 15 16 17
5 4 4 4 4 4 4 3 3 3 4 3 2 2 2 1 1 0 1 2 3 4 5 6 8 9 10 11 11 11 11 12 13 14 15 16 16 17
7 6 6 7 7 6 6 6 6 5 5 4 3 2 2 2 1 1 1 2 3 4 6 8 9 10 11 11 11 12 12 13 14 15 15 16 17 19
9 9 8 8 8 8 7 7 6 6 5 5 4 4 3 2 1 1 2 2 4 6 7 9 10 11 12 11 12 12 13 14 15 16 17 18 19 20
9 9 9 8 8 8 8 7 7 6 5 5 5 4 4 3 3 3 3 5 6 7 8 9 11 11 12 12 13 14 15 16 17 18 19 20 21 22
10 9 9 8 8 8 7 7 6 6 6 5 5 5 4 4 4 5 5 6 7 9 10 11 11 12 13 14 15 16 17 18 19 20 20 21 21 22
10 9 9 9 8 8 7 7 6 6 6 6 5 5 5 5 5 6 7 8 9 10 11 12 13 14 16 17 17 18 19 20 20 21 21 22 23 24
9 9 9 8 7 7 7 7 7 6 6 6 5 5 6 6 6 7 8 10 11 12 13 15 16 17 18 18 19 19 20 21 22 23 24 25 26 27
8 9 9 8 8 7 7 6 6 6 5 5 5 6 6 7 8 9 10 11 12 14 15 16 17 18 19 20 20 21 22 22 24 25 26 28 29 30
7 7 7 7 7 6 6 6 6 5 5 5 6 7 8 9 10 11 12 13 15 16 18 18 19 20 21 21 22 23 24 25 26 27 28 30 32 33

GEFSNE_500_meanwind_162.txt.gz
Wind_Speed
26 25 25 25 25 26 26 26 25 25 26 27 27 28 28 27 27 27 27 26 26 26 27 27 27 28 29 29 29 28 29 29 30 31 32 32 32 33
24 24 24 24 23 24 24 25 25 26 26 26 27 27 26 26 26 26 26 26 25 25 26 26 26 26 27 28 28 29 29 28 29 30 31 32 32 33
20 20 20 21 21 22 23 24 25 26 25 25 26 26 26 26 25 24 24 24 24 24 24 24 24 25 25 26 27 27 27 28 28 29 30 30 31 31
19 19 19 20 20 21 21 22 23 23 24 23 23 24 24 24 24 24 23 23 23 23 23 23 23 23 24 24 25 26 26 27 28 29 29 30 30 30
18 19 19 19 20 20 21 21 21 22 23 23 23 23 23 23 23 23 23 23 22 22 23 23 23 23 23 23 23 24 25 26 27 28 29 29 28 27
17 18 19 20 20 20 19 19 20 20 21 21 22 21 22 22 22 22 22 22 22 23 23 22 22 22 22 22 23 23 24 25 25 26 27 27 27 27
16 17 17 18 18 18 17 17 18 18 18 18 19 19 19 20 20 20 20 20 20 21 21 21 21 21 22 21 22 22 23 23 24 25 25 26 26 27
14 14 15 15 16 15 15 16 16 17 17 17 17 17 18 19 19 19 19 19 19 20 20 20 20 20 21 20 21 21 21 22 22 22 23 23 23 23
14 13 13 13 14 14 14 14 14 14 14 14 14 15 16 16 17 17 17 18 18 18 18 18 19 18 18 18 18 18 19 19 20 20 20 20 21 21
12 11 11 11 12 12 11 11 11 11 11 11 12 13 13 13 14 14 15 15 15 15 15 14 14 15 15 15 16 17 17 18 18 19 19 20 21 22
9 9 9 9 9 8 8 9 8 8 9 9 10 10 11 11 11 12 12 12 11 10 11 11 11 12 13 14 15 16 16 16 17 18 19 21 22 22
8 7 7 7 6 6 6 6 6 7 7 8 8 8 8 9 9 9 9 9 8 8 9 9 9 10 11 12 13 14 15 15 16 17 19 20 20 21
6 6 5 5 4 3 3 4 5 6 6 6 6 6 7 7 7 7 7 7 7 7 7 8 8 9 10 11 12 13 14 15 16 17 17 18 18 19
6 5 4 4 3 2 1 1 2 3 4 4 4 4 5 5 5 5 6 6 6 6 6 7 7 8 9 11 11 12 12 14 15 15 16 17 17 18
7 6 5 4 4 3 2 2 2 2 2 2 2 3 3 4 4 4 4 5 5 5 5 6 7 8 9 10 11 12 13 14 14 15 16 16 17 19
8 7 7 6 5 4 3 3 3 2 2 2 2 2 2 2 2 3 3 3 4 5 5 6 7 8 10 11 12 13 14 15 15 15 16 17 18 19
9 8 7 7 6 5 5 4 3 3 3 2 1 1 1 2 2 1 2 3 4 4 5 6 7 9 11 12 13 14 15 15 15 16 17 18 18 19
9 9 8 8 7 6 6 5 4 3 3 2 1 1 1 1 2 2 3 4 5 6 7 8 9 10 11 13 14 15 16 16 16 17 18 19 20 21
8 8 8 7 6 6 5 5 4 3 2 2 2 1 1 1 2 3 4 5 7 8 9 10 11 12 13 14 15 16 17 17 18 19 20 21 21 22
8 8 7 6 6 5 5 4 4 3 3 2 2 2 3 3 4 5 6 8 8 9 10 12 13 15 16 16 16 17 19 20 20 21 21 22 23 24
8 8 7 6 6 5 5 4 3 3 3 3 4 5 5 5 6 7 8 9 10 11 13 14 15 17 18 18 18 19 20 22 22 23 23 24 24 25
9 8 7 7 6 5 4 4 4 4 4 5 6 6 7 7 8 9 10 11 12 14 15 16 17 18 19 19 20 21 22 23 24 25 26 26 27 27
9 9 8 8 6 5 5 5 5 6 7 7 8 8 9 10 11 11 12 13 15 16 17 18 19 20 20 21 22 23 24 25 25 26 26 27 28 29

GEFSNE_500_meanwind_168.txt.gz
Wind_Speed
25 25 25 25 26 26 27 27 26 27 28 29 30 30 31 31 31 31 31 30 30 30 29 29 29 29 29 30 31 31 32 32 32 32 32 32 32 33
23 23 23 24 24 24 25 25 25 26 27 28 29 29 30 30 30 30 30 30 30 30 30 29 29 29 29 29 30 31 32 32 33 34 33 33 33 33
22 22 23 22 23 22 23 24 25 25 26 26 26 26 27 27 28 29 29 29 29 30 30 30 29 29 30 30 30 31 32 33 33 34 34 34 34 35
21 22 22 22 22 22 22 23 24 23 23 24 25 25 25 26 26 27 27 28 28 28 29 29 29 30 30 30 30 30 31 32 33 33 34 34 35 35
21 21 21 20 20 21 21 21 21 22 22 22 23 24 24 24 24 25 26 26 27 27 27 28 28 28 28 29 29 29 29 30 30 31 31 32 32 32
19 18 18 18 19 19 20 20 20 21 21 22 22 22 22 23 23 23 23 24 25 26 26 26 27 27 27 27 28 28 28 28 28 29 28 29 29 29
16 15 16 16 17 18 18 18 19 20 20 20 20 20 20 21 21 21 22 22 22 23 24 25 26 26 26 27 27 26 26 27 27 27 27 27 27 27
14 15 15 16 17 17 17 17 18 18 18 18 19 19 19 19 19 20 20 20 21 21 22 22 24 24 25 24 25 25 25 25 24 24 25 25 26 26
13 14 15 15 15 16 16 16 16 16 16 16 16 16 17 17 17 17 18 18 18 18 18 19 20 20 21 21 21 22 22 22 22 22 23 24 24 25
13 13 13 13 13 13 13 13 13 13 13 14 14 14 14 14 15 15 15 16 16 15 15 15 16 17 18 19 19 20 20 21 21 21 22 23 23 24
12 12 12 11 11 11 11 10 10 10 11 12 12 13 12 12 12 12 13 14 14 15 15 15 15 16 17 17 18 18 19 19 20 21 21 23 24 25
10 10 10 9 9 9 8 8 8 8 9 9 10 10 9 9 10 10 11 12 13 13 13 14 15 15 14 15 16 16 17 18 18 19 20 21 23 24
10 9 8 8 7 6 6 7 7 7 7 7 7 8 8 8 9 9 10 11 12 12 12 13 13 13 12 13 14 14 15 16 16 17 19 20 21 22
9 8 8 6 5 5 5 6 6 6 6 6 7 7 7 7 7 8 9 10 10 11 11 11 11 11 11 12 12 13 13 14 15 16 17 18 19 20
9 8 8 7 6 5 5 4 4 4 4 5 5 5 6 6 7 7 8 8 8 10 10 11 11 11 11 12 12 13 14 15 15 16 16 18 19 19
9 9 8 8 7 5 4 4 4 4 4 4 4 5 6 6 6 7 7 8 8 8 9 9 9 10 11 12 13 13 14 15 15 16 17 18 19 19
10 9 8 8 7 7 6 5 5 4 3 4 5 5 6 6 6 6 6 7 7 8 9 9 10 11 11 12 13 14 15 15 16 18 18 19 20 21
10 10 9 8 8 7 7 6 5 4 3 3 4 5 6 6 6 7 7 8 8 9 10 11 11 12 13 13 15 16 16 18 18 19 20 21 21 22
11 11 10 9 9 8 7 7 6 5 5 6 6 6 6 7 7 8 8 9 10 11 12 13 13 14 15 15 16 18 19 19 20 20 21 22 23 23
12 11 11 10 10 10 9 8 7 7 7 7 8 8 7 8 9 10 10 11 12 13 13 14 15 16 17 17 17 18 19 21 21 22 23 24 24 24
12 12 12 11 11 11 10 10 9 9 9 9 9 9 9 9 10 11 11 12 13 14 14 15 16 17 18 18 18 19 20 22 24 25 26 26 25 25
13 13 13 12 11 11 11 11 11 11 10 10 10 10 10 11 11 12 13 13 15 15 16 17 18 18 19 20 21 22 23 24 25 26 27 27 26 26
14 13 13 13 12 12 12 12 12 12 12 12 12 12 12 13 13 14 15 15 16 17 18 19 19 20 21 22 23 24 26 26 27 27 27 28 27 27

GEFSNE_500_meanwind_174.txt.gz
Wind_Speed
23 23 23 23 23 23 24 25 25 25 25 26 27 27 28 29 29 30 30 31 31 31 32 32 32 32 32 32 32 31 31 31 31 30 30 31 33 33
23 23 23 24 24 24 24 24 25 25 25 25 25 26 26 26 27 29 29 30 30 30 31 32 32 33 33 33 32 31 31 31 31 31 31 32 33 33
23 23 23 23 23 23 23 24 24 24 23 23 24 25 25 25 26 26 28 28 29 29 29 30 31 32 32 32 31 31 31 30 30 31 30 31 32 32
22 22 22 23 22 22 22 23 23 22 22 22 22 23 24 24 24 25 26 27 27 28 28 29 30 30 30 30 30 29 29 29 29 30 30 30 30 31
21 21 21 22 21 21 21 21 21 21 21 21 21 21 22 23 23 24 24 25 25 26 27 27 28 28 28 28 29 29 28 29 29 29 29 29 30 30
19 19 19 20 19 19 19 19 20 20 20 19 20 20 21 21 22 22 22 22 23 23 24 25 26 26 26 27 27 28 28 29 29 29 29 29 29 30
18 18 18 18 17 17 17 17 18 18 18 19 19 19 19 19 20 20 20 20 21 21 22 22 23 24 24 24 25 26 26 26 27 27 27 28 28 28
16 15 15 15 14 15 15 16 16 17 17 17 18 18 18 18 18 19 18 19 19 19 20 20 20 21 22 23 23 24 24 25 25 25 26 27 27 27
14 14 14 14 13 13 14 14 14 15 16 17 16 16 16 17 17 17 17 17 17 18 18 19 20 20 21 22 22 22 22 23 23 23 24 24 24 24
13 13 13 12 12 12 12 12 12 13 14 14 14 14 15 15 15 16 16 16 16 16 17 18 19 19 20 20 21 21 21 22 22 22 23 23 23 24
13 13 13 13 12 11 11 10 11 11 12 12 12 12 13 14 14 14 14 15 16 16 16 17 18 19 19 19 20 20 21 21 22 22 22 22 23 24
13 13 13 12 11 10 9 9 9 10 10 10 11 11 11 11 12 13 13 14 15 15 15 16 16 17 17 18 19 20 21 21 21 22 22 22 23 23
13 13 11 10 10 9 8 8 8 8 9 10 11 11 12 12 13 13 13 13 14 15 16 16 16 17 17 18 18 19 19 20 20 20 21 21 22 23
13 12 10 10 9 8 8 8 8 8 9 9 9 10 10 11 11 12 13 14 14 15 16 16 17 17 18 18 18 18 18 18 19 19 19 19 20 21
12 11 10 9 9 8 8 7 7 7 8 8 8 9 10 10 11 12 13 13 14 15 15 16 16 17 18 18 18 17 17 17 18 18 19 19 20 20
12 11 10 10 9 8 8 7 7 6 7 7 8 9 10 10 11 11 12 12 14 15 15 15 16 17 17 18 18 18 18 18 18 18 19 19 20 21
12 11 11 10 10 9 8 8 7 7 8 8 8 9 10 10 11 11 12 12 14 15 15 15 15 15 16 16 17 18 18 18 19 19 20 20 20 21
12 12 11 10 10 10 9 9 9 8 9 9 9 9 10 10 11 12 12 12 12 12 13 13 14 15 15 16 17 17 18 19 19 20 21 21 21 22
12 12 11 11 11 11 11 10 10 9 9 10 10 10 10 10 10 11 12 12 12 13 14 15 15 16 17 17 17 18 19 19 20 20 21 22 23 23
12 12 12 12 12 11 11 11 10 10 11 11 10 11 11 11 11 12 13 13 13 14 14 15 16 17 17 18 18 18 19 19 20 21 22 23 24 26
13 13 13 13 12 12 12 12 12 12 12 12 12 12 12 13 14 14 14 15 15 15 16 16 17 18 19 20 20 20 21 22 23 24 24 25 26 26
14 14 13 13 13 13 13 13 13 13 13 13 13 14 14 15 15 15 15 16 16 17 17 18 19 20 20 21 22 22 23 23 24 25 25 26 27 27
15 15 15 15 15 15 14 14 15 15 16 16 16 16 16 16 16 16 16 17 17 18 19 19 19 20 21 22 22 23 23 24 25 26 26 26 27 27

GEFSNE_500_meanwind_180.txt.gz
Wind_Speed
22 22 22 22 23 24 24 24 24 25 25 25 25 25 25 25 26 26 27 28 28 29 30 30 30 29 29 29 29 29 30 31 31 31 31 31 31 31
21 21 21 22 23 23 24 24 24 24 24 24 24 24 24 23 24 25 26 26 26 27 28 29 29 29 29 29 29 28 29 30 31 31 30 30 30 30
21 21 22 22 22 23 23 23 23 23 24 24 24 23 23 23 23 23 23 24 24 25 25 26 27 28 28 28 28 28 29 29 29 29 29 29 29 30
22 22 22 22 21 21 21 22 23 23 23 23 22 22 22 22 22 22 22 23 23 23 24 24 25 26 26 27 27 27 27 27 28 29 29 30 30 30
22 22 21 21 21 21 22 22 23 23 22 21 20 20 21 21 21 21 21 21 21 21 22 23 23 24 25 25 26 26 26 26 27 28 29 29 30 30
21 21 20 20 20 21 21 22 22 22 21 20 20 20 20 20 20 20 19 19 19 19 20 21 21 22 23 24 25 25 26 26 26 27 27 27 28 28
20 19 19 19 19 20 20 20 20 20 19 20 20 19 19 19 19 19 19 19 19 19 20 20 20 20 21 22 23 24 24 25 25 26 25 25 26 26
19 19 18 18 19 19 19 18 18 17 17 17 17 18 18 19 19 19 19 19 19 19 20 20 20 20 20 20 21 22 22 23 24 25 25 26 26 26
18 18 18 17 17 17 17 17 17 16 16 16 16 17 17 18 18 19 19 19 18 18 19 19 20 20 20 20 21 21 22 22 22 23 24 24 25 25
17 16 16 16 17 17 17 16 15 15 15 15 15 16 16 16 17 17 18 18 18 17 18 18 18 19 19 20 20 21 22 22 22 23 23 24 24 25
16 16 16 16 16 16 15 14 13 12 12 13 13 14 15 15 15 16 17 18 18 18 18 18 18 19 19 20 20 21 21 22 22 23 23 24 24 24
16 16 16 16 15 14 14 13 12 11 11 11 12 12 13 14 14 15 16 17 18 18 18 18 18 19 19 20 20 20 21 22 22 23 23 24 24 25
16 16 16 15 14 13 12 12 11 10 10 10 11 11 11 12 13 14 14 16 17 17 17 18 19 19 20 20 20 21 21 22 23 23 24 24 25 25
16 15 14 14 13 12 12 11 10 10 10 9 10 10 11 11 11 12 13 15 16 16 17 17 19 19 20 21 21 21 22 23 23 23 24 25 25 25
15 15 14 13 13 12 12 12 11 10 10 10 10 10 11 11 12 13 15 16 17 17 17 17 18 19 20 20 21 21 22 22 23 23 24 24 24 24
15 15 14 14 13 12 12 11 11 11 11 11 12 12 12 12 13 14 15 16 16 17 18 19 19 19 19 20 20 21 22 22 22 22 22 22 22 23
16 15 15 14 13 13 12 11 11 12 12 12 13 13 13 13 13 14 15 16 17 18 18 20 20 20 20 20 21 21 22 21 22 23 22 22 23 23
15 15 15 14 14 14 13 13 14 14 13 14 14 14 14 14 14 14 15 15 16 17 18 19 19 19 20 20 21 21 21 21 22 22 22 23 23 23
16 16 15 15 15 15 15 15 15 15 15 15 16 16 16 15 15 15 16 16 16 17 18 19 19 20 20 21 21 21 21 21 22 22 22 22 23 23
18 18 16 16 16 16 16 16 16 17 17 17 16 16 16 16 17 17 17 17 17 18 18 18 19 19 20 20 21 21 21 21 21 21 22 22 22 23
19 18 18 19 18 17 16 16 17 18 18 18 18 18 18 18 18 18 18 17 18 18 17 17 18 19 20 20 20 20 20 20 21 22 23 23 23 24
20 20 20 20 19 18 18 18 18 18 19 19 19 19 19 19 19 19 18 18 19 18 18 18 18 19 19 19 19 20 20 21 22 23 23 23 23 24
21 21 22 21 21 20 20 20 19 19 20 20 20 21 21 21 20 20 20 20 20 20 20 20 20 20 20 20 20 21 21 21 22 23 23 24 25 26

GEFSNE_500_meanwind_186.txt.gz
Wind_Speed
21 22 22 21 22 22 21 21 22 23 24 25 25 25 24 24 25 26 26 26 26 28 30 31 31 32 32 32 32 33 33 33 33 34 35 35 35 35
21 21 21 21 21 20 20 21 22 22 22 23 24 25 24 24 25 25 25 26 27 28 29 29 30 31 31 32 32 33 33 33 33 34 35 35 34 34
21 21 21 20 21 21 21 21 22 22 21 22 23 24 24 24 24 24 24 25 26 27 27 28 29 29 30 31 31 31 32 33 33 33 33 34 34 34
20 20 20 21 20 20 20 21 22 22 22 21 22 22 23 24 24 23 23 24 24 25 25 26 27 28 28 29 30 30 31 32 33 33 32 32 33 33
19 19 20 20 19 19 19 20 21 21 21 21 22 22 22 22 23 23 23 23 23 23 24 25 25 26 26 27 28 29 29 30 31 31 31 31 31 32
19 19 19 18 18 19 19 20 21 21 21 22 21 21 21 22 23 22 22 22 22 22 22 23 24 25 25 27 28 28 29 29 29 30 30 31 31 32
18 18 18 18 18 19 19 19 20 20 21 21 20 20 20 21 22 21 21 21 21 21 22 22 23 24 25 26 28 28 28 29 30 30 30 30 31 32
18 18 17 17 17 17 18 18 18 19 20 19 19 19 18 19 20 20 20 20 21 21 22 22 23 24 25 26 27 28 28 29 30 30 30 31 31 31
18 17 17 17 17 17 17 17 16 16 16 16 17 17 17 18 18 19 19 20 20 21 21 22 23 24 25 25 26 27 28 28 29 30 30 31 31 31
18 17 17 16 16 17 16 16 15 14 15 15 16 16 16 16 16 16 17 18 19 20 20 21 22 23 24 25 25 26 27 28 29 30 31 31 31 31
17 17 17 16 16 15 15 15 14 14 14 14 14 13 13 13 14 14 15 16 18 19 20 19 20 21 22 24 25 26 26 27 28 29 30 30 30 31
17 17 16 16 15 15 14 14 13 13 12 12 11 12 11 12 12 13 14 15 16 17 18 19 19 21 21 23 24 25 26 27 28 29 30 30 30 30
17 17 16 15 15 14 14 14 13 12 11 11 11 11 11 12 13 14 15 15 16 17 18 19 19 20 21 22 23 25 26 27 28 29 30 30 31 30
17 17 16 15 14 14 13 13 13 12 12 12 12 12 12 12 13 14 14 15 16 16 17 18 19 20 21 21 22 23 25 27 27 28 29 30 31 31
17 16 15 15 14 14 13 13 13 13 13 13 13 13 13 13 13 14 14 15 16 16 18 19 19 20 21 21 22 23 24 25 26 27 28 29 29 30
16 16 16 16 15 14 14 14 14 14 14 14 14 14 14 14 14 14 15 16 16 17 18 19 19 20 21 21 22 23 23 23 24 25 26 27 28 29
16 16 16 16 16 16 16 15 15 15 15 15 15 15 15 16 16 16 16 17 17 18 18 19 19 20 20 21 22 22 22 23 23 24 24 25 26 27
18 17 17 17 17 16 16 16 16 16 16 16 16 16 16 16 17 17 17 18 18 19 19 19 20 20 21 21 22 22 22 22 22 23 23 23 23 25
19 18 18 18 18 17 17 17 17 17 17 17 17 17 17 17 18 18 18 19 19 19 19 20 20 20 20 21 21 22 22 23 23 23 23 23 23 24
20 19 19 19 19 19 19 19 19 18 17 18 18 19 19 19 19 20 20 20 20 20 20 20 20 20 20 21 22 22 23 23 23 23 23 24 24 24
22 21 20 20 20 20 20 20 19 18 18 18 19 19 19 19 19 20 20 20 21 21 21 20 20 21 21 21 21 21 22 22 22 23 23 24 24 24
22 22 21 21 21 21 21 20 20 19 19 20 20 20 20 20 20 20 20 21 21 21 21 21 21 22 22 22 22 22 22 23 23 23 24 25 25 24
23 23 22 23 23 23 22 22 22 22 22 22 22 21 21 21 21 21 22 22 22 22 22 22 21 21 22 22 21 22 22 22 22 22 22 23 24 24

GEFSNE_500_meanwind_192.txt.gz
Wind_Speed
24 24 24 24 24 24 23 23 23 23 23 24 25 26 26 26 26 28 29 29 30 31 32 32 33 34 34 34 35 35 36 37 38 37 38 38 40 40
24 24 24 24 24 24 23 23 23 23 22 23 24 25 26 27 26 27 28 29 30 31 32 32 31 33 33 33 33 34 35 36 37 37 38 39 40 40
23 24 24 24 23 23 23 23 23 22 22 23 24 25 26 27 27 27 27 28 29 29 30 30 31 31 32 32 32 33 34 34 35 36 36 38 38 38
23 23 23 23 23 22 22 23 23 22 22 22 23 24 25 25 26 26 26 27 28 28 29 30 30 31 31 32 32 33 33 34 35 35 35 37 37 37
23 23 22 22 22 22 22 22 22 22 22 22 22 23 24 25 24 25 25 26 27 28 29 30 30 31 31 31 32 32 33 33 35 36 36 37 37 38
22 22 22 21 22 22 22 21 21 21 22 22 21 22 23 23 23 24 24 25 26 26 27 28 28 29 29 30 30 30 31 32 33 34 34 35 36 37
22 22 23 22 22 22 20 20 21 21 21 22 21 21 21 22 22 22 23 23 24 25 25 26 26 27 27 28 28 28 29 30 31 32 33 34 34 35
21 22 22 22 22 21 20 19 19 20 20 21 21 21 21 21 22 22 22 22 23 23 23 25 26 26 26 27 28 28 28 29 31 32 33 33 34 35
20 21 21 20 20 20 19 19 19 20 20 20 20 20 20 20 20 20 20 21 22 22 22 23 24 25 26 27 27 28 28 29 30 31 32 33 33 34
19 20 19 19 19 18 18 19 19 19 19 18 18 18 19 19 19 19 19 20 21 20 20 21 22 23 24 25 26 26 28 29 29 30 31 32 34 34
19 18 18 18 18 18 18 18 18 18 18 17 17 17 18 18 18 18 18 19 20 20 21 21 22 22 22 24 25 26 27 28 29 30 31 32 33 34
18 18 18 18 19 19 18 18 17 18 17 16 16 16 16 16 17 17 17 17 17 18 20 20 21 22 22 23 24 25 26 27 28 28 30 31 32 33
18 18 18 19 18 18 18 18 17 17 16 15 15 16 16 16 16 16 16 17 16 17 18 19 20 21 22 22 23 24 25 26 27 28 29 30 31 31
18 18 19 19 19 18 18 18 17 16 16 16 16 16 16 16 17 17 17 17 17 18 18 19 19 21 22 22 22 22 24 25 26 27 28 29 30 31
19 19 19 19 19 20 20 19 18 17 17 17 17 16 16 16 17 17 18 18 19 19 19 20 20 21 21 21 21 22 22 23 24 25 26 27 27 28
20 21 21 21 21 20 19 19 19 19 19 18 17 17 17 17 17 17 18 19 19 20 21 21 21 21 21 21 21 22 22 22 23 25 26 27 27 28
22 22 22 22 21 21 21 20 20 19 19 18 18 18 18 18 18 18 18 19 20 20 20 20 21 21 21 21 21 21 22 22 23 24 25 26 27 27
23 23 23 23 23 22 22 21 20 20 20 20 19 19 19 18 18 18 18 19 20 20 20 21 22 21 21 21 21 21 21 22 23 24 25 25 25 26
25 25 24 24 23 23 22 21 20 20 20 20 20 20 20 19 19 19 19 20 20 20 20 20 21 21 22 22 22 23 23 22 22 22 23 23 24 24
25 25 24 24 24 24 22 21 21 20 20 20 20 20 21 20 20 21 21 22 21 21 21 21 21 21 22 22 22 22 22 23 22 22 22 23 23 23
25 25 25 25 25 24 23 22 21 21 21 22 22 21 22 21 21 22 22 22 22 21 21 21 21 21 21 21 21 21 21 22 22 22 22 22 22 22
26 26 26 26 25 25 24 23 23 22 22 22 23 22 22 22 22 22 22 21 22 22 22 22 22 21 22 22 21 21 21 21 21 22 22 21 22 21
28 28 28 27 26 25 25 24 24 23 23 23 23 23 23 23 23 23 23 22 22 22 22 22 22 22 22 21 21 21 20 20 20 20 20 21 22 22

GEFSNE_500_meanwind_198.txt.gz
Wind_Speed
24 24 25 25 24 24 24 24 24 24 24 25 25 26 27 27 27 27 28 28 27 28 30 31 31 32 34 33 34 35 35 36 38 38 37 37 38 37
24 24 24 24 24 23 23 23 23 24 24 25 25 25 26 27 27 28 28 27 28 29 29 30 30 31 33 33 34 35 35 35 36 37 37 37 38 39
23 24 23 24 23 23 23 23 23 23 23 24 25 25 25 26 27 27 27 27 28 29 30 30 31 31 32 33 34 35 35 35 36 37 37 38 39 39
22 22 22 23 23 23 23 23 23 23 23 23 23 24 25 25 25 25 26 27 28 28 29 30 30 30 31 32 33 34 35 36 37 37 38 39 39 40
22 22 21 22 22 23 23 22 23 23 23 23 23 23 24 24 24 24 24 25 27 27 28 29 29 29 29 31 32 32 33 35 36 37 37 38 39 39
21 20 20 21 22 22 22 22 22 22 22 22 22 23 23 23 23 23 24 24 25 26 27 27 27 28 28 29 31 32 32 32 33 34 36 37 37 37
19 19 19 20 20 21 21 21 21 22 22 22 22 23 23 23 23 23 23 24 23 23 24 25 25 27 28 29 30 31 31 32 32 32 33 34 35 36
19 19 20 20 21 21 21 21 21 22 22 21 22 22 22 22 23 23 23 22 22 22 23 24 25 26 27 28 28 29 30 31 31 32 32 33 34 35
20 20 21 21 21 21 20 20 21 21 21 21 22 22 21 21 21 21 21 22 22 22 23 23 24 24 25 26 27 28 29 30 31 32 33 33 33 34
20 21 21 21 21 20 20 21 21 21 21 21 21 20 20 20 20 20 20 21 22 22 22 22 23 23 24 25 26 27 28 29 30 31 32 33 33 33
20 20 20 20 20 20 20 20 20 20 21 20 20 20 19 19 18 19 19 19 20 20 21 21 23 24 24 25 26 26 27 28 29 30 31 31 32 33
21 20 20 20 21 20 20 20 21 20 20 20 19 19 19 19 19 19 20 20 19 19 20 20 21 23 23 24 25 25 26 27 28 30 31 31 32 33
20 20 20 21 21 21 21 21 21 20 20 19 18 19 19 19 19 20 19 19 19 19 20 20 21 21 22 24 25 25 26 27 28 29 30 31 31 32
21 21 21 20 20 20 20 20 20 20 19 19 19 19 18 18 18 19 20 19 20 20 20 20 21 21 22 22 23 24 25 26 27 28 29 29 30 30
21 21 20 20 20 20 20 20 20 20 20 19 19 19 18 19 19 19 19 20 20 20 20 20 21 21 22 22 23 23 24 24 25 26 27 28 29 30
21 21 21 21 21 21 21 21 21 20 20 20 19 19 19 19 19 19 19 19 19 18 19 20 21 22 22 22 22 22 22 23 23 24 25 26 27 29
22 21 21 22 22 22 22 21 21 21 20 20 19 19 18 18 18 19 20 20 19 18 19 20 20 21 21 22 22 23 23 23 23 24 25 25 26 26
24 23 22 23 23 23 22 22 22 21 20 19 18 18 18 18 18 19 19 19 19 19 20 20 21 21 21 22 23 23 23 23 23 23 24 25 25 25
24 24 23 23 23 23 22 22 21 20 20 19 19 19 19 19 20 20 21 21 21 21 21 21 21 21 22 21 22 23 23 23 22 22 22 23 24 25
24 24 24 23 23 23 23 22 21 21 20 19 19 19 19 20 20 20 20 20 21 21 21 21 21 22 22 21 22 22 22 22 23 22 22 22 23 24
25 25 24 24 25 24 24 23 22 21 21 20 20 20 20 20 20 20 20 21 21 21 22 22 22 21 21 21 21 21 21 21 21 21 22 22 22 23
26 26 25 25 25 25 24 23 22 21 21 21 20 20 21 21 20 20 20 20 20 21 21 22 22 21 22 21 21 21 21 21 20 20 20 20 20 21
26 26 26 26 26 25 25 24 23 22 22 22 21 21 21 21 22 21 21 21 21 21 21 21 21 21 22 22 21 21 20 20 20 19 19 19 19 20

GEFSNE_500_meanwind_204.txt.gz
Wind_Speed
25 25 25 25 25 25 25 25 24 24 24 24 24 25 25 24 25 25 26 26 26 27 28 29 29 29 29 31 32 32 34 35 35 36 37 38 37 38
25 25 25 25 25 25 25 25 25 25 25 25 24 24 24 25 25 26 26 26 27 27 28 28 29 30 29 30 31 32 33 33 34 35 36 38 38 37
25 25 26 25 25 25 25 25 25 25 25 25 25 25 24 24 25 26 26 27 27 27 27 27 27 28 30 29 30 31 32 32 33 34 35 36 37 37
24 25 24 25 25 24 24 24 24 24 25 25 25 25 25 25 25 26 26 26 26 26 26 26 26 27 28 29 30 30 31 32 32 32 34 35 36 37
23 23 23 23 24 24 24 24 24 24 24 24 25 25 25 25 24 24 25 25 26 26 26 26 27 27 27 28 29 30 31 31 32 32 33 33 34 35
23 23 23 23 23 23 23 24 24 24 24 24 25 25 25 25 24 24 24 24 25 26 25 25 26 27 27 27 28 30 31 31 31 31 32 33 33 35
23 23 23 23 22 23 23 23 23 23 23 23 24 24 24 24 24 24 24 24 25 25 24 24 25 26 27 27 27 28 29 30 30 31 31 32 33 34
23 23 23 23 23 23 23 23 24 24 24 24 24 24 24 24 24 25 25 24 24 24 24 24 25 25 26 26 26 26 27 28 29 30 31 32 33 34
23 23 23 23 23 23 23 23 24 24 24 25 25 25 25 25 25 24 24 24 24 24 24 23 23 23 24 24 25 25 26 27 28 29 30 31 32 33
23 23 23 23 23 23 24 24 24 24 24 25 25 25 25 25 25 24 23 23 24 24 24 22 22 22 23 23 24 25 26 26 28 29 29 30 31 32
24 24 24 24 24 23 24 24 24 24 24 25 26 26 25 25 24 24 23 23 23 22 21 21 21 22 22 22 22 23 24 25 26 27 28 29 30 31
25 25 24 24 24 24 23 23 24 24 24 25 25 25 24 23 23 23 23 22 21 21 21 21 21 21 21 22 22 22 23 23 24 25 26 27 28 30
25 24 24 23 23 22 22 23 23 23 23 24 23 23 22 21 21 20 20 20 20 21 21 21 21 21 21 21 22 23 23 23 24 25 26 27 28 28
25 25 24 22 22 23 23 23 23 22 22 21 21 20 19 19 19 19 19 20 20 20 20 21 20 20 21 21 22 23 24 24 25 25 26 26 27 27
25 25 24 23 23 24 23 23 22 22 21 20 19 19 19 19 19 19 19 19 19 20 20 21 21 21 22 22 22 23 24 24 24 25 25 26 27 27
26 26 25 25 24 24 23 22 22 22 21 20 20 19 19 18 18 17 18 18 18 19 20 20 21 22 22 23 24 24 24 24 23 24 24 25 26 27
25 25 25 25 25 24 24 24 23 22 20 20 19 18 17 17 17 17 18 19 19 20 20 21 21 22 23 24 24 24 24 24 23 23 23 24 25 26
25 25 25 26 26 26 25 24 24 22 21 20 19 19 17 17 17 17 18 18 19 20 21 20 21 22 22 23 22 23 22 22 22 22 22 22 23 24
25 26 26 27 26 26 25 24 24 22 21 20 19 19 18 18 18 18 19 20 20 21 21 20 21 21 22 22 22 21 21 21 21 21 21 21 22 23
25 26 26 26 26 25 25 24 24 22 21 21 21 20 19 18 18 20 20 20 20 21 20 20 20 20 19 20 20 20 21 21 21 21 21 21 21 22
26 26 26 26 25 25 25 24 24 23 22 20 21 20 19 19 19 19 20 20 20 20 20 19 19 19 19 19 20 20 20 20 20 20 21 21 21 21
27 27 27 26 26 25 25 24 24 23 22 21 20 20 20 19 19 19 20 20 20 20 20 20 19 19 19 19 20 21 20 20 20 19 19 19 19 20
28 27 27 27 26 26 25 24 23 23 21 21 21 21 21 20 20 20 20 20 20 20 20 20 20 20 20 20 20 20 19 19 19 19 19 19 18 18

GEFSNE_500_meanwind_210.txt.gz
Wind_Speed
23 23 23 23 23 24 24 24 23 23 24 24 24 25 25 25 26 26 27 28 28 28 29 30 31 32 32 33 34 35 36 37 37 38 39 39 40 40
22 22 23 23 24 24 24 24 23 22 22 23 23 24 25 25 25 26 26 27 28 28 28 29 30 31 32 33 33 33 35 35 35 36 37 38 39 39
22 22 22 23 23 24 23 22 22 22 22 23 24 24 25 26 26 26 26 27 28 27 28 29 30 31 31 31 33 33 33 34 35 36 37 37 38 38
23 22 22 22 23 23 23 23 23 23 23 23 23 24 25 26 26 26 27 27 27 27 27 28 29 30 30 30 31 32 32 33 34 35 36 36 38 38
23 22 22 23 23 23 23 23 23 23 24 24 24 25 25 26 27 26 26 25 26 27 27 28 29 30 30 30 30 31 31 32 34 35 35 35 37 38
22 22 23 23 23 24 24 23 23 23 24 24 24 24 25 25 26 27 25 25 26 27 27 27 28 28 29 30 30 30 31 32 33 33 35 36 36 37
22 23 23 24 24 24 23 23 23 23 23 23 23 23 24 25 26 26 25 26 26 27 27 27 27 27 28 29 29 29 30 31 32 33 34 36 36 37
22 23 24 24 24 23 23 22 22 22 22 23 23 24 24 25 25 25 25 25 25 27 27 28 28 27 27 28 29 29 30 31 32 32 33 34 35 36
23 24 24 24 23 23 22 22 22 22 23 23 23 24 24 24 24 24 24 24 24 25 26 26 27 27 27 27 28 28 29 29 30 31 33 33 34 35
23 24 24 23 22 21 21 22 23 23 23 23 23 23 23 24 24 24 25 24 23 23 24 24 26 26 27 27 27 28 28 29 29 30 32 32 33 35
23 24 24 23 22 22 23 23 23 23 23 23 23 24 24 24 24 23 23 23 22 23 23 23 23 24 25 26 26 26 26 27 28 28 29 31 32 33
23 24 23 23 23 23 23 23 22 22 23 23 23 23 23 23 23 22 22 22 22 22 22 23 23 24 24 24 25 25 25 25 27 28 28 29 30 32
23 23 23 23 24 24 23 23 22 22 22 22 21 22 23 23 22 22 22 22 21 21 21 22 22 22 23 23 24 24 25 26 26 27 28 28 28 29
23 23 23 23 24 23 23 23 22 21 21 20 20 20 21 20 20 20 20 20 20 20 20 20 21 22 22 23 23 24 25 25 26 27 28 28 29 29
23 24 24 24 24 23 23 23 22 21 20 19 20 20 19 19 19 18 19 19 20 20 20 20 21 21 22 23 23 24 24 25 25 26 27 28 28 28
24 25 25 24 24 23 23 23 22 21 20 20 19 19 18 18 18 18 18 18 19 19 20 21 21 22 22 22 23 24 24 24 24 25 26 27 28 28
24 25 25 24 23 23 22 22 21 21 20 19 19 18 18 18 18 18 18 18 19 19 20 20 20 20 21 22 22 23 24 25 25 25 25 26 27 27
24 25 25 24 23 22 22 21 21 20 20 19 19 18 18 18 17 18 18 18 18 18 19 19 19 19 19 20 21 21 22 22 23 23 24 25 25 26
24 24 24 23 22 22 21 21 20 20 19 19 19 18 18 17 17 17 17 17 18 18 18 19 19 19 20 20 21 21 21 21 21 22 22 23 24 25
24 24 24 23 22 22 22 22 21 21 20 19 19 18 17 17 17 17 17 17 17 18 18 18 19 19 20 20 20 20 20 20 20 20 21 21 22 22
24 24 24 23 23 23 23 22 22 21 21 20 19 18 18 17 17 17 17 17 17 18 18 18 18 19 19 19 19 18 19 19 19 19 18 19 19 20
24 24 23 23 23 23 23 23 22 21 21 21 19 19 18 18 17 17 17 17 18 18 18 18 18 18 18 18 18 18 18 18 18 18 17 17 17 18
23 23 23 23 23 24 24 24 23 22 21 21 20 19 19 18 17 17 17 17 17 18 18 18 18 18 18 18 17 17 18 18 18 18 17 17 17 17

GEFSNE_500_meanwind_216.txt.gz
Wind_Speed
23 23 23 23 23 24 24 25 25 25 26 26 26 27 28 29 30 31 31 31 32 32 32 32 33 34 35 35 36 38 39 39 39 39 39 41 42 42
23 24 24 24 24 24 24 25 25 25 25 26 26 27 28 29 30 30 31 30 31 31 32 31 32 34 34 35 35 36 37 36 37 39 40 40 41 42
24 24 24 25 25 25 25 26 27 27 26 25 26 27 27 28 28 29 29 29 30 31 31 31 31 33 33 34 33 34 35 36 36 37 38 39 40 41
25 25 25 26 26 26 27 27 28 27 27 26 26 26 27 27 28 29 29 28 29 30 31 31 31 31 32 33 33 34 35 36 37 37 37 37 39 40
26 26 27 27 27 27 27 27 27 28 27 27 26 27 27 28 28 28 28 29 29 30 31 31 31 31 32 32 33 34 35 37 38 38 37 37 38 39
25 26 26 27 27 27 27 27 27 27 27 26 26 26 27 27 28 28 28 29 30 30 31 31 31 32 32 33 33 33 34 35 36 37 37 38 38 38
25 25 26 26 26 26 27 27 26 26 26 25 25 25 25 26 27 27 28 28 28 29 29 30 30 31 32 33 33 33 33 33 34 35 36 37 38 38
24 25 26 26 26 27 26 26 25 25 25 25 25 25 25 26 27 27 27 27 27 27 28 28 29 29 30 31 32 32 32 33 34 35 35 35 36 38
24 24 25 26 26 26 25 25 25 25 25 25 24 25 25 26 26 26 26 26 26 26 27 27 28 28 29 30 30 31 32 32 32 33 34 34 35 36
24 24 25 26 25 25 24 25 25 25 25 24 25 25 24 25 25 25 25 26 26 26 26 26 26 27 28 29 30 30 30 31 31 31 32 33 34 35
24 25 25 25 25 25 24 24 23 23 23 23 24 24 24 24 24 24 24 25 25 26 26 26 25 26 26 27 28 29 29 29 30 31 31 32 32 33
25 25 25 25 25 24 24 23 23 22 22 23 24 24 23 23 23 23 24 24 24 24 25 25 25 24 24 25 26 27 28 29 29 29 30 31 31 32
25 25 25 25 24 24 24 23 23 22 22 22 22 23 23 23 23 23 23 23 23 24 25 25 24 24 24 25 26 26 27 27 27 27 28 29 30 31
24 25 24 24 24 23 23 23 23 23 22 23 23 23 23 22 22 22 22 23 23 23 23 22 22 23 23 24 24 24 25 25 25 25 26 27 29 30
24 24 24 24 23 23 23 23 23 22 23 23 22 22 21 21 21 21 21 21 20 19 20 20 20 21 21 22 22 22 23 23 24 24 25 26 27 29
25 24 24 23 23 23 23 23 22 22 22 22 21 21 20 19 18 18 18 19 19 19 19 19 19 19 19 19 19 20 21 22 23 23 24 25 25 27
25 24 23 23 23 23 23 23 22 22 21 21 20 19 18 18 18 18 18 18 18 18 18 18 18 19 18 18 18 18 20 21 22 22 22 23 23 24
24 23 23 23 24 24 24 23 22 22 21 19 19 19 19 18 18 18 18 18 18 18 18 18 18 19 19 18 18 18 18 19 21 21 21 22 22 22
24 24 24 24 24 24 23 23 22 22 21 20 19 19 19 19 18 18 18 18 18 18 18 18 18 18 19 19 19 19 19 20 20 21 22 22 22 22
25 24 24 24 24 24 24 23 22 21 20 20 20 20 20 19 19 18 18 18 18 18 17 17 17 17 17 18 18 19 19 19 19 19 20 21 22 22
24 24 24 24 24 25 24 24 23 22 21 21 20 20 21 20 19 18 18 18 18 18 17 17 17 16 17 17 17 18 18 18 18 18 19 19 19 20
24 24 24 24 25 25 25 24 23 23 22 22 21 21 20 20 19 18 18 18 17 16 16 16 16 16 16 16 16 17 17 17 17 17 18 18 18 18
24 24 25 25 25 25 25 25 25 23 22 22 21 20 19 19 18 17 17 17 16 16 15 15 16 15 15 15 15 15 16 16 16 16 16 17 17 17

GEFSNE_500_meanwind_222.txt.gz
Wind_Speed
23 24 24 24 24 24 24 25 26 26 27 27 28 29 29 30 30 31 30 30 31 31 32 33 34 34 34 35 35 35 36 36 37 38 39 40 40 41
23 24 24 24 24 24 25 25 25 26 26 27 28 29 29 30 31 31 31 31 31 32 33 34 34 35 35 36 36 36 36 36 38 38 39 40 41 41
24 24 24 24 25 25 26 26 26 26 26 26 27 28 29 30 31 31 32 33 32 32 33 34 34 34 35 36 36 36 36 36 37 38 38 39 40 41
24 24 25 25 26 26 26 26 26 27 27 27 27 27 28 29 30 31 32 33 33 32 32 33 33 34 34 35 35 35 36 36 36 37 38 39 40 41
24 24 25 25 26 27 27 27 27 27 26 26 26 27 27 28 29 30 31 32 32 32 32 32 33 33 34 34 34 35 35 35 35 36 38 39 39 40
23 24 24 25 26 26 27 27 27 27 27 26 26 27 27 27 28 29 29 30 31 31 32 32 32 32 33 33 34 34 35 35 36 36 37 38 39 40
23 24 24 25 25 26 26 27 27 27 26 26 26 26 26 27 28 28 28 29 30 31 32 32 32 31 32 33 33 33 34 35 35 36 37 38 39 39
22 23 24 25 25 25 26 26 26 26 25 25 25 25 26 26 27 27 27 27 28 29 30 30 30 30 31 32 33 34 35 34 34 35 36 37 37 38
22 23 23 23 24 24 24 25 24 24 25 25 25 25 25 26 26 26 26 26 27 27 26 26 27 28 29 30 31 32 33 33 33 34 34 35 37 37
21 22 23 23 23 23 23 23 23 23 23 24 24 24 24 24 24 25 25 26 26 25 26 26 27 28 28 29 30 31 31 32 32 32 32 32 34 36
22 22 23 23 23 23 23 23 23 23 22 22 22 22 23 23 23 23 23 24 24 24 25 26 26 26 27 28 29 29 29 30 30 30 31 32 33 34
22 22 22 22 22 21 21 21 21 22 22 22 22 22 22 22 22 22 22 21 22 23 23 24 24 25 26 27 26 27 27 28 29 30 31 31 32 32
23 22 22 22 21 21 21 21 21 21 21 21 21 22 22 21 21 21 21 21 21 21 22 23 23 24 24 24 25 25 26 26 26 28 29 29 30 31
22 22 22 21 21 21 21 21 21 21 21 21 21 21 22 21 21 21 21 21 21 21 21 21 21 22 22 23 24 24 25 25 25 25 27 28 29 30
22 22 21 21 21 21 22 22 22 21 21 21 21 21 21 21 21 21 21 20 20 20 21 21 21 21 21 22 23 23 24 25 26 25 25 25 26 28
22 22 21 20 20 21 22 22 21 21 21 20 21 21 21 20 19 19 19 19 19 19 20 21 21 21 21 21 22 23 24 23 23 24 24 24 24 25
21 21 21 21 21 21 22 22 21 21 20 20 20 19 19 18 18 18 18 18 18 18 19 19 19 20 20 21 21 21 21 22 22 22 23 23 24 24
21 21 21 21 21 22 22 22 21 21 20 19 19 18 18 18 17 16 16 16 16 16 17 17 18 18 19 20 20 20 20 20 20 21 22 22 23 25
21 21 21 21 22 22 21 21 20 20 19 19 19 18 17 16 16 15 15 15 15 16 16 16 16 17 18 18 18 18 18 18 18 19 20 21 22 22
22 21 21 21 22 22 21 21 21 20 19 19 18 17 16 16 15 15 15 15 15 16 16 15 15 16 16 17 18 18 18 18 18 19 19 20 20 21
22 22 22 22 22 22 22 21 21 20 19 18 18 17 16 16 15 14 14 15 15 15 14 14 14 14 15 16 17 17 18 18 18 18 18 18 18 18
21 22 23 23 23 23 22 21 20 20 19 18 18 17 16 15 15 14 14 14 14 14 13 13 13 13 14 14 15 16 16 16 16 16 17 17 17 17
22 23 23 24 24 23 22 21 20 20 19 18 17 16 16 15 14 14 13 13 14 14 14 13 13 13 13 13 14 14 14 14 14 14 15 15 15 15

GEFSNE_500_meanwind_228.txt.gz
Wind_Speed
25 25 26 26 26 26 25 25 25 25 25 25 25 24 25 26 26 27 28 29 29 30 30 30 31 32 32 32 33 33 34 34 35 36 36 36 37 37
24 25 24 24 24 24 25 25 25 25 25 24 24 24 25 26 25 25 26 28 29 30 31 31 31 31 32 33 33 34 34 35 35 36 36 37 37 38
24 25 24 24 24 24 24 25 26 26 25 25 25 25 25 26 26 25 25 27 28 29 30 30 31 31 31 32 33 34 35 35 36 36 36 37 37 37
23 23 23 24 24 24 25 26 26 26 27 26 26 25 25 25 26 27 26 27 27 28 28 29 30 31 32 32 33 33 34 35 35 36 37 38 38 38
22 22 23 23 23 24 25 25 26 27 27 27 27 26 26 25 26 26 27 27 27 27 28 29 30 31 32 32 32 32 33 34 35 36 37 38 38 38
22 22 23 23 23 24 24 25 26 26 26 27 27 27 27 27 27 27 27 28 28 28 28 29 30 31 31 31 32 32 33 34 35 36 37 37 38 39
22 23 23 23 24 25 25 25 26 26 27 27 27 27 27 27 27 28 28 28 28 28 29 29 30 31 32 32 32 33 34 34 35 35 36 37 38 38
22 23 23 23 24 25 26 26 26 26 26 27 27 27 27 27 27 27 27 28 28 28 29 29 30 30 31 31 32 33 33 33 34 35 36 37 37 38
23 23 24 24 24 24 24 24 25 25 25 25 25 25 25 26 26 26 27 28 28 28 29 28 28 29 29 30 31 31 32 33 34 34 35 36 37 38
24 24 24 24 24 24 24 25 24 24 24 24 24 25 24 24 25 25 26 26 26 27 27 27 27 27 28 29 30 30 31 31 31 32 33 34 35 35
23 24 24 24 24 24 24 24 24 23 23 23 24 24 24 25 25 25 25 25 25 25 26 26 26 26 26 27 27 28 28 29 30 31 32 33 34 35
23 23 23 23 23 24 24 23 23 23 23 23 23 23 24 24 25 25 25 25 25 24 25 25 25 25 25 25 25 25 26 27 28 29 30 32 33 34
23 23 23 23 23 24 24 24 24 23 23 23 23 23 23 23 23 24 24 24 24 23 24 24 23 23 23 23 23 24 24 25 25 26 28 29 31 32
23 23 23 23 23 24 24 23 23 23 23 23 23 23 22 22 22 21 21 21 21 21 22 22 22 23 23 24 24 24 24 25 25 26 27 27 28 30
22 23 23 24 23 23 24 23 23 22 22 22 22 21 20 20 20 19 19 19 20 20 20 20 21 22 22 23 23 23 24 24 25 25 25 26 26 27
22 22 23 23 23 23 23 22 22 22 22 21 20 19 19 19 19 19 18 18 19 19 19 19 20 21 21 21 22 23 23 23 23 23 24 25 25 26
23 23 23 23 23 23 22 21 21 21 20 19 19 19 19 18 18 18 18 18 19 19 19 18 19 19 20 20 20 20 21 21 22 23 24 24 24 25
23 23 24 24 24 23 22 21 20 21 20 20 19 19 18 18 18 18 17 17 18 18 18 18 18 18 18 18 18 18 19 19 20 20 21 21 21 21
23 23 24 24 24 22 21 20 19 19 19 19 19 18 18 18 17 17 16 16 17 17 18 18 17 17 17 16 16 16 17 18 18 18 19 19 19 20
23 23 23 23 23 22 21 20 18 18 18 18 18 18 17 17 17 17 16 16 17 17 16 16 16 16 16 15 15 15 16 17 18 18 18 18 19 19
23 23 22 22 21 21 20 19 18 18 18 18 17 17 17 16 16 16 16 16 16 16 15 15 15 15 15 14 14 15 15 16 17 16 17 17 18 19
24 23 22 22 21 20 20 19 19 18 18 18 18 17 16 16 16 16 16 16 16 15 15 15 15 14 14 14 14 14 14 14 15 15 16 16 18 18
23 22 21 21 20 20 20 20 19 19 18 18 17 17 17 17 16 16 16 15 15 15 14 14 13 13 13 13 13 13 13 13 13 14 15 15 16 16

GEFSNE_500_meanwind_234.txt.gz
Wind_Speed
20 21 22 23 23 24 25 26 27 27 27 26 27 27 27 27 27 26 26 26 27 28 28 29 30 31 31 32 33 34 34 34 34 34 34 34 35 35
20 21 22 23 24 25 26 27 27 27 26 26 26 27 26 26 26 27 28 27 28 29 29 30 31 31 32 33 33 34 34 35 35 35 35 35 35 36
21 21 22 23 24 24 25 25 25 25 25 25 26 26 26 26 26 27 27 28 28 29 30 31 31 32 32 33 33 34 34 35 35 36 36 36 36 36
20 21 22 23 24 24 24 25 25 25 24 25 26 27 26 26 26 26 27 27 28 29 29 30 31 32 32 32 33 34 34 35 35 36 37 37 36 37
20 22 23 23 23 23 24 24 24 24 24 24 25 26 26 27 26 27 27 27 28 29 29 30 31 32 33 32 33 33 34 35 35 36 37 37 37 37
21 22 23 23 23 24 24 25 24 24 24 24 25 25 26 26 26 27 27 28 28 29 30 30 30 30 32 33 33 34 34 35 36 36 36 37 37 38
20 22 22 23 23 24 24 24 24 24 24 25 25 25 26 27 27 28 28 28 29 29 30 30 30 30 31 31 32 33 34 35 35 36 36 37 38 38
21 22 22 23 24 25 25 25 25 25 25 25 25 25 25 26 27 27 27 27 28 29 29 28 30 30 31 32 32 32 33 34 35 36 37 37 38 38
21 22 22 23 24 25 24 25 25 25 25 25 25 25 25 25 25 26 26 26 26 26 27 27 28 29 30 32 32 32 33 34 35 36 37 38 38 38
20 20 21 22 23 23 24 24 24 24 24 24 24 24 24 25 25 25 26 26 25 26 27 28 29 29 30 31 32 32 33 34 35 36 37 38 38 38
18 20 21 21 22 23 23 23 24 24 24 23 23 23 24 24 24 24 25 26 26 26 27 28 29 30 30 30 30 30 31 32 33 34 35 36 37 38
19 20 20 21 21 22 23 23 23 23 23 22 22 22 22 22 23 24 24 25 25 26 27 27 27 28 28 29 30 30 30 31 32 33 34 35 36 37
20 20 21 21 22 22 23 22 22 22 22 21 21 21 21 21 22 23 23 23 24 24 25 25 25 26 27 27 28 28 29 30 30 31 31 32 33 34
20 20 21 22 22 22 22 21 21 21 21 20 20 21 21 21 22 22 23 23 23 24 24 25 25 25 25 26 26 27 27 28 29 29 29 29 30 31
21 21 21 22 22 22 22 21 21 20 19 19 19 20 20 21 21 22 22 22 22 23 23 23 23 24 24 25 25 26 26 27 28 28 28 29 29 30
21 21 22 22 22 22 21 21 20 19 19 19 19 19 19 19 20 21 20 21 21 21 21 21 21 22 23 24 25 26 26 26 27 27 28 29 29 30
21 22 22 22 22 21 20 20 19 19 19 19 19 18 19 19 19 19 18 19 19 20 19 19 20 20 21 22 23 24 24 25 25 26 26 27 27 28
21 21 22 22 21 20 19 20 19 18 18 18 18 18 18 18 17 17 17 17 17 17 17 17 18 19 20 20 21 22 22 23 24 24 24 25 25 25
21 21 21 21 21 19 19 18 18 18 17 17 17 17 17 16 16 15 16 16 16 17 17 17 17 17 17 18 20 21 21 21 22 23 23 23 23 24
20 21 21 21 20 19 18 17 17 17 17 16 16 16 15 15 14 15 15 15 15 16 15 16 16 16 17 17 18 18 19 20 21 21 22 22 22 22
20 20 20 20 20 19 17 16 16 16 16 16 16 16 15 15 14 15 15 15 15 15 14 14 15 15 16 16 16 16 17 18 18 19 20 21 21 21
21 20 19 19 19 18 17 16 16 16 16 16 16 16 15 15 15 15 15 15 14 14 14 14 14 14 15 15 16 16 16 16 16 17 18 18 19 19
20 20 19 19 19 19 18 17 17 16 16 16 16 15 15 15 15 14 14 14 13 13 13 12 12 13 14 14 14 14 15 15 16 16 16 17 18 19

GEFSNE_500_meanwind_240.txt.gz
Wind_Speed
21 22 23 24 25 25 25 26 26 27 28 28 29 29 29 29 29 29 30 29 29 29 29 30 30 31 31 31 32 33 34 35 35 36 36 36 36 35
21 22 24 24 25 25 24 25 26 26 27 28 29 29 28 28 28 29 29 29 29 30 30 29 30 30 31 31 31 32 34 35 35 35 35 36 37 36
22 23 24 25 24 25 25 25 25 26 27 27 28 28 28 28 28 28 29 29 29 29 30 30 30 30 31 31 31 32 33 34 35 36 35 36 37 37
22 22 23 24 24 25 25 25 25 26 27 27 27 27 28 28 28 28 28 28 29 29 30 30 30 31 32 32 32 32 33 34 35 36 36 37 37 37
21 22 23 24 24 25 25 26 26 26 27 26 26 26 27 27 28 28 28 28 28 29 29 29 30 31 32 32 32 32 33 34 35 36 37 38 38 38
21 22 22 23 24 25 25 26 27 27 27 26 26 26 27 27 27 27 28 28 28 27 28 29 30 30 31 32 32 33 33 33 35 37 38 38 38 38
21 22 22 23 25 25 26 27 27 27 27 27 26 25 25 26 26 27 28 27 27 27 27 28 29 30 31 32 31 32 33 34 35 36 37 38 38 39
21 21 23 24 25 25 25 26 26 27 27 26 25 25 25 25 26 27 27 28 28 27 28 29 29 29 30 31 31 31 33 33 33 35 36 37 39 40
20 21 22 23 23 23 24 25 25 25 25 25 25 26 26 27 27 27 28 28 28 28 28 28 29 30 31 32 32 33 34 34 33 34 35 37 38 39
20 20 21 21 21 22 23 24 24 24 24 24 25 25 25 26 26 26 27 28 29 29 29 29 29 30 32 33 33 33 34 35 35 34 35 36 37 38
20 20 20 21 21 21 22 23 24 23 24 24 24 24 24 24 25 26 26 26 27 28 29 29 29 29 30 30 31 32 33 33 34 34 35 35 36 36
19 20 21 21 21 22 22 23 23 23 24 24 24 24 24 24 24 24 24 24 25 26 27 27 27 28 29 29 29 30 32 32 33 33 33 34 34 35
19 20 20 20 21 22 22 22 22 23 23 23 24 23 23 23 23 24 24 24 24 25 26 26 27 27 28 28 28 28 29 30 31 32 32 32 33 34
19 20 19 20 21 21 21 21 21 21 22 22 21 22 22 22 23 23 24 24 24 24 25 25 25 25 26 26 26 26 27 28 29 30 31 31 32 32
19 20 21 21 21 20 20 21 21 21 20 20 20 21 21 22 22 22 22 23 23 23 22 23 23 23 23 23 24 25 26 26 27 29 30 31 32 33
20 21 21 21 20 20 20 20 20 20 19 19 19 19 20 20 20 20 21 21 21 20 20 21 21 21 22 22 23 24 25 26 27 28 29 30 31 32
20 20 20 21 21 20 20 20 19 19 18 18 18 19 19 19 20 20 19 19 19 19 20 20 20 20 21 21 22 23 24 25 26 27 28 29 29 30
20 20 20 20 20 20 19 19 18 18 17 18 18 18 19 18 18 18 18 18 19 19 19 19 19 20 20 20 20 21 23 23 24 25 26 28 28 28
21 20 20 20 19 19 18 17 17 17 17 17 17 17 17 17 17 17 17 18 18 18 18 18 18 18 18 19 19 20 21 21 22 23 24 25 27 28
21 20 20 19 18 18 18 17 17 17 18 17 17 17 16 17 17 17 17 17 17 17 17 17 17 17 18 19 19 19 20 20 21 22 23 24 24 25
20 20 20 20 19 19 18 18 17 17 17 17 17 17 17 16 17 17 17 17 16 16 16 16 17 17 18 18 18 19 19 19 19 20 21 22 22 23
20 20 20 20 19 19 19 18 18 18 17 17 16 16 16 16 16 16 16 16 15 15 16 16 17 17 17 17 17 17 18 18 17 18 18 19 20 21
19 20 20 19 19 19 19 18 17 17 17 16 16 16 16 15 16 15 15 14 14 14 15 16 16 17 16 16 16 16 16 16 16 16 17 17 18 19

GEFSNE_500_meanwind_246.txt.gz
Wind_Speed
24 25 25 25 26 26 26 27 28 29 29 29 30 31 31 31 31 31 31 32 32 33 33 33 33 33 33 32 32 33 33 33 33 34 35 36 37 37
24 25 25 25 26 26 27 27 28 29 29 30 30 31 31 31 31 31 31 31 31 32 31 31 31 32 32 33 33 32 33 33 34 34 35 36 37 38
23 24 25 26 26 26 27 28 28 29 29 29 30 30 30 31 30 30 30 31 31 31 31 31 32 32 31 32 33 33 33 33 34 34 34 35 37 38
23 24 25 26 26 27 27 27 28 28 29 29 29 29 29 29 30 29 29 30 30 30 30 30 31 31 31 31 32 32 33 33 34 34 34 35 36 37
22 24 25 25 26 27 27 27 27 27 28 29 29 29 29 29 28 28 29 30 30 29 30 30 30 30 30 30 31 32 32 32 33 34 35 35 35 36
21 23 23 24 25 26 26 26 26 26 27 27 28 29 29 29 28 28 29 29 29 29 30 30 29 29 29 29 30 31 32 32 32 33 33 34 36 36
19 20 21 22 23 24 24 24 24 25 26 26 27 27 27 28 27 27 28 28 29 29 29 30 30 30 30 29 29 30 32 32 33 33 33 33 34 35
19 19 20 20 21 22 22 23 23 24 25 26 26 26 26 27 26 25 27 28 29 29 29 29 30 31 31 31 31 31 32 33 34 34 35 34 34 35
18 19 20 21 21 21 21 22 23 24 24 24 24 23 24 25 26 26 27 29 29 29 30 29 29 30 31 32 32 32 32 33 34 34 35 36 36 36
19 20 20 21 21 21 21 22 22 22 23 23 22 23 24 25 26 26 26 27 28 29 29 29 30 29 29 30 30 31 32 33 34 34 35 36 37 38
20 20 20 21 21 22 22 22 22 23 23 23 22 22 23 24 25 25 26 26 26 27 28 29 30 31 30 30 30 31 32 33 34 34 35 36 37 38
19 20 20 20 21 21 21 21 21 21 21 21 22 22 23 24 25 26 26 26 27 28 28 29 30 31 31 31 31 31 31 32 34 34 35 36 37 37
18 19 19 19 19 20 20 20 20 20 20 21 22 22 23 23 24 25 27 28 28 28 28 28 29 31 32 32 32 31 31 32 33 34 34 35 36 37
18 19 19 18 18 19 19 19 19 19 20 21 21 22 22 22 23 24 26 26 26 26 26 27 27 29 30 31 31 31 31 32 33 34 35 35 36 37
19 19 19 19 18 18 18 18 18 19 19 19 20 21 22 22 23 23 24 25 25 26 26 26 27 27 28 29 29 29 30 30 30 31 32 33 34 35
18 19 19 18 18 17 17 17 18 18 19 19 20 21 21 21 21 21 22 23 25 26 25 26 26 26 27 27 28 29 29 30 30 30 30 30 31 32
18 18 19 19 18 18 18 18 17 17 17 18 19 19 19 19 19 19 20 21 21 22 23 23 24 25 25 26 26 27 28 29 29 29 29 29 30 31
18 18 19 19 18 18 18 17 17 18 18 18 18 18 18 18 18 19 19 19 20 20 21 21 22 23 24 24 25 26 27 27 27 27 28 28 29 30
18 18 18 17 17 17 17 16 17 17 18 18 18 18 17 18 18 18 18 19 19 19 19 20 21 22 23 23 24 24 24 24 24 25 26 27 27 28
18 18 18 18 17 17 17 17 17 17 17 17 17 17 18 18 18 18 18 18 18 18 19 20 21 21 21 21 21 21 22 22 23 24 24 25 26 27
19 18 18 18 18 17 17 17 16 16 16 16 16 17 17 17 17 18 17 17 17 17 17 17 17 18 18 18 19 19 20 21 21 22 23 24 25 25
18 18 18 17 17 17 17 17 16 16 16 16 16 16 16 16 16 16 15 15 15 15 15 15 16 16 17 17 18 18 19 19 19 19 20 20 21 22
19 19 18 18 17 17 16 16 15 15 16 16 15 15 14 14 14 14 13 13 13 13 14 14 15 15 16 16 16 17 17 17 17 18 18 18 18 19